                ,  0.671,  0.819,  0.966,  1.114,  1.262,  1.410,  1.558,  1.705,  1.853,  2.001,  2.149,  2.297,  2.445,  2.592,  2.740,  2.888,  3.036,  3.184,  3.331,  3.479,  3.627,  3.775,  3.923,  4.070,  4.218,  4.366,  4.514,  4.662,  4.809,  4.957,  5.105,  5.253,  5.401,  5.549,  5.696,  5.844,  5.992,  6.140,  6.288,  6.435,  6.583,  6.731,  6.879,  7.027,  7.174,  7.322,  7.470,  7.618,  7.766,  7.914,  8.061,  8.209,  8.357,  8.505,  8.653,  8.800,  8.948,  9.096,  9.244,  9.392,  9.539,  9.687,  9.835
2005/08/24 00:00,  999.0,    0.5,   -1.4,   -1.0,  999.0,  999.0,   -0.1,  999.0,   -2.7,   -2.6,   -4.3,   -1.9,   -1.0,   -3.6,   -4.3,  999.0,   -0.9,    1.0,    2.2,    0.2,   -0.6,   -1.4,   -1.9,   -0.8,   -2.7,  999.0,  999.0,  999.0,    1.7,    5.5,    7.2,    5.7,    2.2,    2.1,    2.5,    1.1,    0.0,    1.2,    2.4,    3.9,    4.6,    5.5,    5.8,    5.3,    5.8,    6.0,    8.8,    6.5,    6.6,    6.6,    6.9,    7.3,    3.8,    3.2,   -5.4,   -5.6,    0.4,    2.2,    4.4,    5.0,    4.8,   -4.9,  -11.6
2005/08/24 00:10,  999.0,   -0.9,   -1.8,  999.0,   -1.2,   -0.5,  999.0,   -2.1,  999.0,   -3.1,   -0.4,  999.0,   -1.8,   -1.9,    2.3,    2.5,    2.9,    3.0,    1.6,    0.2,   -0.8,   -2.1,   -1.7,   -1.0,   -0.8,  999.0,  999.0,    3.3,    4.3,    4.3,    4.7,    4.3,    4.5,    3.8,    1.9,    0.7,    1.3,    4.2,    7.0,    9.4,   10.8,   11.4,   11.5,   11.8,   11.8,   11.8,   11.9,   12.2,   12.8,   13.2,   13.4,   13.7,   13.7,   13.5,   13.5,   14.3,   15.3,   14.7,   14.4,   13.8,   14.7,  999.0,   13.7
2005/08/24 00:20,  999.0,    0.3,   -1.4,   -1.8,   -2.5,   -0.9,  999.0,  999.0,  999.0,   -0.5,   -0.7,    1.0,  999.0,   -4.8,    2.3,    3.2,    1.5,    1.9,    1.3,   -0.4,   -0.3,   -0.7,   -0.2,  999.0,    0.6,  999.0,    0.6,    2.1,    2.1,    2.4,    3.0,    2.4,    2.3,    1.8,    1.2,    1.6,    4.1,    6.4,    8.6,    9.9,   10.8,   11.0,   11.3,   11.7,   12.3,   12.7,   13.3,   14.3,   14.6,   14.7,   14.8,   14.6,   14.1,   13.2,   13.0,   13.5,   14.1,   14.0,   14.3,   14.5,   15.2,   15.8,   16.3
2005/08/24 00:30,  999.0,   -0.1,   -1.7,   -0.7,   -3.3,   -0.4,   -0.0,   -0.3,    3.8,    2.1,    0.4,   -1.0,   -1.4,    0.6,    5.0,    3.7,    2.4,    1.6,    2.5,   -0.6,   -0.8,   -0.2,  999.0,  999.0,  999.0,  999.0,  999.0,    2.4,    2.9,    2.7,    1.8,    2.2,    2.5,    2.0,    2.8,    4.7,    6.8,    8.8,   10.1,   11.0,   11.4,   11.5,   12.0,   12.9,   13.6,   13.2,   13.3,   14.4,   15.3,   15.7,   15.9,   15.8,   15.8,   15.6,   15.1,   15.0,   15.0,   15.2,   15.7,   16.0,  999.0,  999.0,  999.0
2005/08/24 00:40,  999.0,  999.0,  999.0,   -1.2,   -1.6,  999.0,    0.5,  999.0,   -2.1,   -0.8,  999.0,  999.0,  999.0,  999.0,  999.0,  999.0,  999.0,    2.9,  999.0,  999.0,  999.0,  999.0,  999.0,  999.0,  999.0,   -0.2,    1.5,    2.1,    4.4,    3.3,    2.1,    1.7,    1.9,    3.1,    3.8,    5.8,    7.9,    9.4,   10.3,   10.5,   11.1,   11.4,   11.9,   13.1,   13.8,   13.9,   13.4,   13.6,   14.4,   14.8,   15.5,   15.8,   16.0,   15.6,   15.3,   15.3,   14.9,   15.4,   15.8,   15.7,   15.1,  999.0,  999.0
2005/08/24 00:50,  999.0,    0.1,   -0.2,   -1.0,   -2.4,  999.0,  999.0,  999.0,  999.0,  999.0,    0.8,  999.0,    2.1,  999.0,  999.0,    1.4,    0.7,    1.2,   -1.8,   -0.2,  999.0,  999.0,   -0.3,  999.0,   -0.3,    0.8,    1.3,    1.6,    2.0,    2.7,    2.4,    2.1,    2.0,    3.1,    5.6,    7.6,    9.0,   10.1,   10.2,   10.7,   11.4,   12.1,   12.4,   13.3,   13.4,   12.9,   13.2,  999.0,   14.6,   15.2,   15.3,   15.2,   14.9,   14.9,   14.5,   14.2,   14.8,   15.6,   16.1,   16.5,  999.0,  999.0,  999.0
2005/08/24 01:00,  999.0,   -0.8,   -1.6,   -1.2,   -1.7,   -0.1,  999.0,  999.0,  999.0,  999.0,   -5.3,  999.0,  999.0,  999.0,  999.0,    2.3,    1.0,  999.0,    0.4,   -1.2,   -2.2,   -2.7,   -4.4,   -3.9,   -2.7,   -4.3,   -1.6,    1.4,    2.2,    1.6,    1.1,    0.7,    2.5,    5.9,    8.7,    9.9,   10.5,   10.4,   10.8,   11.3,   11.7,   11.9,   12.0,   11.7,   11.9,   11.9,   12.0,   11.9,   12.8,   13.0,   13.3,   14.0,   13.7,   13.7,   14.3,   15.1,   15.3,   15.2,   15.5,   16.5,  999.0,  999.0,  999.0
2005/08/24 01:10,  999.0,   -0.1,   -0.5,  999.0,  999.0,  999.0,    3.0,   -3.5,  999.0,   -1.1,    3.6,    3.7,    2.9,    1.8,    3.8,    1.7,   -0.3,    0.9,    1.4,   -0.2,   -1.8,   -3.2,   -1.8,  999.0,   -1.1,    0.1,  999.0,  999.0,  999.0,    1.5,    2.9,    3.7,    6.1,    8.7,    9.5,   10.0,   10.1,    9.9,   10.0,   10.7,   11.0,   11.6,   11.3,   11.3,   11.4,   11.6,   11.7,   11.7,   11.8,   12.1,   12.4,   12.7,   13.3,   13.8,   14.4,   14.9,   15.0,   15.5,   15.9,  999.0,  999.0,  999.0,  999.0
2005/08/24 01:20,  999.0,  999.0,  999.0,   -1.4,   -1.9,  999.0,  999.0,  999.0,  999.0,  999.0,  999.0,  999.0,  999.0,  999.0,  999.0,    3.1,    2.5,    1.5,    0.1,   -0.6,   -1.0,   -1.7,   -1.9,   -1.3,  999.0,  999.0,  999.0,  999.0,  999.0,    0.7,    1.6,    4.2,    5.9,    7.4,    8.1,    8.9,    9.0,    9.3,    9.9,   10.3,   10.4,   10.9,   10.9,   11.2,   11.4,   11.9,   11.9,   12.0,   12.5,   12.6,   12.7,   13.0,   13.3,   13.6,   13.5,   13.9,   13.6,   13.6,   14.0,   14.2,   14.8,  999.0,  999.0
2005/08/24 01:30,  999.0,  999.0,  999.0,  999.0,   -2.3,  999.0,  999.0,  999.0,  999.0,  999.0,  999.0,  999.0,    3.0,    2.4,    2.4,    1.8,    1.7,    1.4,    1.3,    1.3,    0.5,   -0.0,    0.3,   -0.1,  999.0,  999.0,  999.0,  999.0,   -0.0,    1.2,    3.1,    5.4,    6.8,    8.2,    8.7,    8.9,    9.4,    9.7,    9.9,    9.9,   10.5,   10.7,   11.3,   11.8,   12.1,   12.1,   12.3,   12.6,   13.1,   13.0,   13.3,   12.9,   13.1,   13.7,   14.0,   14.2,   14.6,   14.3,  999.0,  999.0,  999.0,  999.0,  999.0
2005/08/24 01:40,  999.0,   -0.2,   -0.2,    0.5,   -1.7,   -0.5,    0.0,    1.5,    3.8,    3.5,    2.5,    2.0,    1.6,    1.7,    1.4,    0.3,   -0.1,   -1.1,   -1.4,   -1.5,   -1.9,   -0.8,    1.2,    1.6,    0.6,  999.0,  999.0,   -0.2,    0.5,    3.1,    5.0,    6.0,    7.0,    9.2,    9.5,    9.7,   10.1,   10.4,   10.4,   10.6,   11.0,   11.3,   11.2,   11.2,   11.6,   12.3,   12.4,   13.0,   13.6,   13.9,   13.5,   12.9,   13.1,   13.2,   12.9,   12.2,  999.0,  999.0,  999.0,  999.0,  999.0,  999.0,  999.0
2005/08/24 01:50,  999.0,   -1.2,   -0.9,   -1.5,   -2.4,   -3.5,  999.0,    1.9,    2.6,    2.7,    3.0,    3.3,    2.8,    2.7,    4.2,    0.9,    0.2,   -0.4,   -1.2,   -1.1,    0.1,    0.8,    1.4,    0.9,  999.0,  999.0,    0.4,    1.1,    3.2,    4.8,    5.7,    5.8,    8.5,    9.4,    9.5,   10.1,   10.2,   10.6,   10.9,   10.9,   11.2,   11.4,   11.1,   11.1,   11.4,   11.9,   12.2,   12.7,   13.1,   13.3,   13.8,   13.7,   13.9,   13.7,   13.8,   11.8,   11.3,   11.1,   10.9,   11.6,   13.7,  999.0,  999.0
2005/08/24 02:00,  999.0,   -2.1,   -1.9,   -2.0,   -3.2,   -2.8,    0.2,    1.9,    2.4,    2.3,    1.5,    2.1,    2.7,    1.8,    0.6,    0.2,   -0.4,   -1.7,   -1.5,   -0.4,    0.9,    0.8,    0.3,    0.2,  999.0,  999.0,  999.0,    2.6,    4.0,    5.6,    7.2,    9.6,   10.4,    9.7,    9.6,    9.9,   10.5,   10.4,   10.5,   10.2,   10.1,   10.3,   10.3,   10.7,   11.5,   12.1,   13.1,   13.9,   13.9,   13.6,   13.3,   12.6,   11.9,   12.2,   11.7,   11.3,   11.0,   11.1,   10.3,   10.2,    9.6,   11.7,   12.6
2005/08/24 02:10,  999.0,   -1.5,   -1.9,   -2.5,   -3.2,   -1.2,    0.7,    2.6,    2.5,    2.4,    2.5,    3.0,    1.7,    0.3,   -0.9,   -1.6,   -2.0,   -1.8,   -0.6,    1.2,    0.3,   -0.5,   -0.6,    0.7,  999.0,  999.0,  999.0,    2.7,    3.1,    5.1,    7.3,    6.7,    6.6,    7.3,    7.5,    7.5,    7.6,    7.5,    8.0,    8.8,   10.1,   10.6,   11.5,   12.3,   12.5,   12.4,   12.7,   13.1,   14.1,   13.3,   13.0,   11.0,   10.8,    7.0,    2.6,    1.6,    3.1,  999.0,  999.0,  999.0,  999.0,  999.0,  999.0
2005/08/24 02:20,  999.0,   -1.6,   -1.6,   -2.4,   -3.4,   -2.1,    0.3,    1.6,    1.1,    1.0,    1.8,    2.5,    1.7,    0.8,   -0.6,   -1.2,   -1.0,    0.2,    2.5,    1.7,    0.9,    0.6,   -0.1,   -0.1,   -0.1,    1.0,  999.0,    1.9,    3.6,    6.7,    8.7,    9.1,    8.5,    8.2,    7.9,    8.4,    8.6,    9.0,    9.1,    9.5,   10.1,   11.3,   12.2,   12.6,   12.9,   12.7,   12.8,   12.7,   12.9,   13.4,   13.8,   14.0,   14.0,   13.6,    9.4,    8.1,    7.0,    5.2,    3.6,    2.8,    1.3,    0.7,    0.3
2005/08/24 02:30,  999.0,   -1.4,   -1.6,   -2.4,   -2.6,   -2.4,    1.2,    2.7,    4.5,    2.1,    3.3,    2.4,    2.3,    0.3,    0.1,   -0.1,    1.4,    3.4,    3.5,    1.4,    0.5,    0.4,    1.8,  999.0,  999.0,  999.0,  999.0,  999.0,    6.2,    7.8,    7.5,    7.1,    7.3,    7.6,    7.9,    8.7,    9.4,   10.0,   10.4,   10.7,   11.8,   12.4,   12.6,   12.8,   12.6,   12.6,   12.4,   12.6,   12.1,   12.7,   12.6,   12.5,   11.8,   12.4,   12.4,  999.0,  999.0,  999.0,   12.7,  999.0,  999.0,  999.0,  999.0
2005/08/24 02:40,  999.0,  999.0,   -4.1,   -2.9,   -3.1,   -2.5,    0.6,    1.2,    0.8,    0.7,    1.1,    1.7,    1.2,   -0.3,   -1.2,   -1.8,   -0.8,    2.2,   -0.1,   -1.2,   -2.3,   -2.1,   -1.4,   -0.6,    0.5,    0.1,    2.8,    7.1,    8.3,    7.2,    7.2,    6.9,    8.3,    8.7,    9.2,    9.8,    8.9,    9.7,   10.0,   10.9,   11.7,   12.0,   11.3,   11.6,   11.7,   11.7,   11.1,   10.9,   11.4,   11.6,   11.7,   12.1,   12.1,   12.0,   11.7,   11.7,   11.9,   12.7,   13.0,   12.7,   12.4,   13.3,   13.2
2005/08/24 02:50,  999.0,   -2.4,   -2.5,   -3.1,   -3.0,   -0.9,    1.4,    1.8,    2.1,    1.5,    1.5,    1.3,    0.3,   -0.4,   -1.1,   -0.2,    2.6,    3.6,    1.1,    0.3,    0.8,    0.9,    1.0,    1.7,    1.3,    3.3,  999.0,  999.0,    6.7,    6.2,    7.1,    7.4,    7.7,    8.5,    9.5,   10.0,   10.3,   11.0,   11.4,   11.9,   12.4,   12.5,   12.4,   12.5,   11.8,   11.2,   11.8,   11.7,   11.6,   11.8,   11.7,   11.5,   11.5,   11.8,   12.1,   12.2,   12.7,   13.4,   14.0,   13.0,   12.7,   13.1,  999.0
2005/08/24 03:00,  999.0,   -1.1,   -1.2,   -1.8,   -2.5,   -2.2,    0.3,    1.3,    1.5,    1.1,    1.4,    1.3,    0.4,   -0.6,   -1.9,   -1.8,   -0.0,    1.6,   -0.3,   -1.7,   -1.7,   -0.7,    0.4,    2.0,    4.8,  999.0,  999.0,  999.0,  999.0,    6.0,    5.2,    6.8,    8.8,   10.3,   10.9,   11.1,   11.1,   11.5,   11.7,   11.8,   12.3,   12.0,   12.1,   11.8,   11.8,   12.1,   12.1,   11.0,   11.2,   11.1,   11.1,   11.5,   11.6,   12.1,   12.8,   12.9,   13.3,   13.0,   13.1,   12.7,   12.6,   11.8,    9.6
2005/08/24 03:10,  999.0,   -1.9,   -2.2,   -2.8,   -2.9,   -1.7,    0.7,    1.1,    1.7,    1.3,    0.9,    0.8,   -0.3,   -1.1,   -1.2,   -0.3,    0.8,    0.7,   -1.4,   -2.5,   -2.3,   -1.6,    0.3,    2.9,    5.2,    3.8,  999.0,  999.0,  999.0,    6.1,    8.2,    9.4,   10.1,    9.9,   10.0,   10.6,   10.5,   10.4,   10.6,   10.5,   10.4,   10.9,   11.1,   11.5,   11.8,   11.7,   11.5,   11.2,   10.9,   11.1,   11.5,   12.2,   12.5,   13.2,   13.7,   14.2,   13.2,   13.4,   14.1,   14.4,   13.9,   16.1,   14.0
2005/08/24 03:20,  999.0,   -2.0,   -2.5,   -2.8,   -3.3,   -1.1,   -0.0,    0.0,    0.1,    0.1,    0.7,    0.3,   -1.1,   -0.5,    0.5,    1.1,    2.0,    3.0,    0.5,    1.6,    1.7,    1.4,    2.8,    4.7,    5.3,    5.1,  999.0,  999.0,  999.0,    9.7,   11.0,   11.1,   11.7,   11.8,   11.1,   11.3,   11.9,   11.6,   11.8,   11.7,   11.4,   11.7,   11.5,   12.4,   12.2,   12.7,   12.2,   12.0,   11.5,   11.0,   10.9,   11.3,   11.2,   12.0,   12.4,   11.9,   12.1,   12.4,   13.4,   14.4,   14.6,   14.1,   13.5
2005/08/24 03:30,  999.0,   -1.5,   -2.2,   -2.4,   -2.6,   -0.6,    0.3,   -0.1,    0.3,   -0.2,    1.2,    1.7,    0.4,    0.9,    1.4,    2.4,    1.4,    0.8,   -1.0,   -0.7,   -0.1,    1.4,    3.5,    4.5,    5.1,    5.7,    4.4,  999.0,  999.0,   10.9,   10.8,    9.4,    9.6,    8.3,    7.3,    8.3,    9.3,   10.0,   11.2,   11.9,   11.8,   11.7,   11.8,   12.0,   11.7,   11.8,   11.5,   11.4,   11.9,   11.5,   12.8,   13.2,   14.0,   14.0,   13.9,   14.2,   13.8,   13.2,   14.2,  999.0,   14.7,  999.0,  999.0
2005/08/24 03:40,  999.0,   -2.0,   -2.8,   -2.9,   -2.8,   -0.5,   -0.0,   -1.3,   -1.1,   -0.0,    0.0,   -0.6,    0.9,    2.0,    3.8,    3.7,    1.5,    0.3,   -1.2,   -0.4,    0.7,    2.6,    4.0,    5.4,    3.0,    2.8,    7.9,  999.0,  999.0,    9.2,    8.3,    8.6,    8.8,    7.8,  999.0,  999.0,    8.7,    9.2,   10.3,   11.1,   12.3,   12.9,   13.0,   13.1,   13.2,   13.6,   13.9,   14.1,   14.3,   14.0,   14.0,   14.9,   15.0,  999.0,  999.0,  999.0,  999.0,  999.0,  999.0,  999.0,  999.0,  999.0,  999.0
2005/08/24 03:50,  999.0,   -2.9,   -3.4,   -3.6,   -2.8,   -1.0,   -1.0,   -1.2,   -1.4,   -0.3,   -0.1,   -0.0,    0.7,    2.1,    2.6,    1.8,    1.1,    0.1,    0.3,    1.6,    2.7,    4.2,    5.2,    6.3,    5.6,    5.3,    6.3,    7.4,  999.0,    9.9,   10.5,    9.7,   10.6,   10.1,    8.9,    9.2,    8.9,    9.0,    9.3,   10.3,   11.5,   12.3,   12.5,   12.8,   13.4,   14.2,   13.7,   14.0,   12.5,   12.2,   13.8,   12.8,  999.0,  999.0,  999.0,  999.0,  999.0,  999.0,  999.0,  999.0,  999.0,  999.0,  999.0
2005/08/24 04:00,  999.0,   -3.8,   -4.6,   -3.0,   -3.0,   -1.6,   -1.9,   -2.4,   -1.5,   -0.7,    0.6,    0.3,    0.8,    1.9,    2.6,    2.0,    1.5,    0.8,    0.9,    1.2,    3.4,    3.7,    5.9,    6.0,    5.9,    4.9,    5.6,    7.5,    7.5,    7.5,    8.8,    9.6,    9.0,    9.7,   10.0,    9.6,    9.7,   10.0,    9.9,   10.5,   11.4,   12.2,   12.9,   12.9,   13.1,   13.0,   12.9,   13.1,  999.0,  999.0,  999.0,  999.0,  999.0,  999.0,  999.0,  999.0,  999.0,  999.0,  999.0,  999.0,  999.0,  999.0,  999.0
2005/08/24 04:10,  999.0,   -2.5,   -2.9,   -2.7,   -2.6,   -1.4,   -1.6,   -1.3,   -1.0,   -0.5,    0.4,    0.6,    1.0,    1.9,    2.2,    2.8,    2.4,    1.3,    0.9,    2.2,    2.3,    3.5,    4.7,    4.7,    4.9,    4.8,    5.3,    6.2,    6.7,    7.2,    8.1,    9.0,    9.3,   10.0,   10.8,   10.7,    9.6,    9.1,    8.9,    9.9,   11.3,   12.1,   13.5,   13.5,   13.5,   12.9,   13.2,   12.3,   13.1,   12.5,  999.0,  999.0,  999.0,  999.0,  999.0,  999.0,  999.0,  999.0,  999.0,  999.0,  999.0,  999.0,  999.0
2005/08/24 04:20,  999.0,   -3.9,   -3.1,   -3.9,   -3.0,   -2.5,   -1.6,   -1.7,   -1.3,   -1.2,    0.1,   -0.7,    1.0,    0.1,    0.8,    2.1,    2.3,    2.4,    4.0,    4.8,    5.3,    5.4,    7.6,    7.7,    7.8,    5.4,    5.4,    6.4,    6.9,    7.0,    7.1,    8.4,    9.0,   10.0,   10.0,    9.2,    9.0,    8.1,    8.8,   10.0,   11.6,   12.2,   12.8,   12.9,   12.9,   12.9,   12.5,   11.5,   11.7,   12.0,   12.1,   11.3,   11.0,   11.6,   12.0,  999.0,  999.0,  999.0,  999.0,  999.0,  999.0,  999.0,  999.0
2005/08/24 04:30,  999.0,   -2.8,   -3.0,   -4.6,   -2.6,   -1.7,   -1.5,   -2.1,   -1.6,   -1.2,   -0.5,   -0.4,    1.0,    1.6,    3.4,    3.7,    3.0,    1.4,    1.8,    2.4,    2.6,    3.5,    4.6,    4.7,    4.3,    4.4,    4.7,    5.1,    4.7,    5.6,    6.9,    6.8,    8.6,    9.6,    9.8,    9.4,    8.9,    9.0,    9.9,    9.9,   11.0,   11.8,   11.3,   10.2,    9.4,    9.7,   10.0,  999.0,   13.0,   14.1,   13.2,   11.9,   11.9,  999.0,  999.0,  999.0,  999.0,  999.0,  999.0,  999.0,  999.0,  999.0,  999.0
2005/08/24 04:40,  999.0,   -2.7,   -2.3,   -3.3,   -5.1,   -1.9,   -2.2,   -1.9,   -1.2,   -1.8,   -3.0,  999.0,  999.0,   -0.6,   -1.1,    1.7,    2.0,    2.9,    0.8,    0.1,  999.0,    2.3,  999.0,    3.5,  999.0,  999.0,  999.0,  999.0,  999.0,  999.0,   28.8,   35.5,   31.5,   27.2,   23.7,   32.1,  999.0,    7.6,  999.0,   24.9,   11.0,   10.8,   10.4,  999.0,    8.3,    9.1,    9.3,  999.0,  999.0,  999.0,  999.0,  999.0,  999.0,  999.0,  999.0,  999.0,  999.0,  999.0,  999.0,  999.0,  999.0,  999.0,  999.0
2005/08/24 04:50,  999.0,   -2.2,   -3.2,   -3.0,   -4.2,   -1.6,   -1.5,   -1.7,   -1.0,   -2.7,   -3.0,  999.0,  999.0,    0.6,    1.5,    1.7,    2.0,    2.1,    2.9,    2.9,    3.7,    3.6,    5.0,  999.0,  999.0,  999.0,  999.0,  999.0,  999.0,    4.0,  999.0,  999.0,  999.0,    8.3,    8.0,   -4.0,    7.0,  999.0,    6.6,    8.0,    7.7,  999.0,    7.4,  -12.8,   -9.2,   -4.4,  -24.4,  999.0,  999.0,  999.0,  999.0,  999.0,  999.0,  999.0,  999.0,  999.0,  999.0,  999.0,  999.0,  999.0,  999.0,  999.0,  999.0
2005/08/24 05:00,  999.0,    0.0,  999.0,   -3.1,   -4.4,   -2.4,   -1.7,  999.0,   -1.6,   -1.2,   -0.9,  999.0,    0.7,    1.4,    2.1,    2.2,    2.1,    2.0,    2.8,    3.1,    3.4,    4.2,    5.3,    5.8,    6.0,  999.0,  999.0,  999.0,  999.0,  999.0,  999.0,   -7.6,  999.0,  999.0,  -22.7,  999.0,   -6.1,   -5.2,   -5.6,  -15.3,   -9.9,  -27.7,    1.6,   -2.3,  999.0,  999.0,  999.0,  999.0,  999.0,  999.0,  999.0,  999.0,  999.0,  999.0,  999.0,  999.0,  999.0,  999.0,  999.0,  999.0,  999.0,  999.0,  999.0
2005/08/24 05:10,  999.0,   -1.2,  999.0,   -1.6,   -0.6,   -1.6,   -2.0,   -1.4,   -1.5,   -1.1,   -0.9,  999.0,  999.0,    0.8,  999.0,    1.4,  999.0,    2.4,    2.9,  999.0,    4.0,    4.5,    4.8,  999.0,  999.0,  999.0,  999.0,  999.0,  999.0,  999.0,  999.0,  999.0,  999.0,  999.0,  999.0,  999.0,  999.0,  999.0,  999.0,  999.0,    0.0,   -0.1,   -0.0,    0.1,   -0.1,    0.0,    0.2,  999.0,  999.0,  999.0,  999.0,  999.0,  999.0,  999.0,  999.0,  999.0,  999.0,  999.0,  999.0,  999.0,  999.0,  999.0,  999.0
2005/08/24 05:20,  999.0,   -2.6,   -1.7,   -1.3,   -1.3,   -1.5,   -2.6,   -1.7,   -1.5,   -1.1,   -1.0,    0.4,    0.4,    0.9,    1.9,    2.7,    2.8,    3.4,    3.8,    4.0,    4.3,    4.5,  999.0,  999.0,  999.0,  999.0,  999.0,  999.0,  999.0,  999.0,  999.0,  999.0,  999.0,  999.0,  999.0,   27.6,   27.5,   29.0,   29.3,   23.8,   23.7,   16.4,  999.0,  999.0,  999.0,   36.2,   36.7,   31.8,   38.6,   37.8,  999.0,  999.0,  999.0,  999.0,  999.0,  999.0,  999.0,  999.0,  999.0,  999.0,  999.0,  999.0,  999.0
2005/08/24 05:30,  999.0,   -1.6,   -2.0,   -1.4,   -1.1,   -1.9,   -3.3,   -2.5,   -1.8,   -1.2,   -0.9,  999.0,  999.0,    2.2,    3.1,    3.6,    3.8,    2.7,    3.2,    3.9,    3.7,    4.5,    4.6,  999.0,  999.0,  999.0,  999.0,  999.0,  999.0,  999.0,  999.0,  999.0,  999.0,  999.0,  999.0,  999.0,   14.9,  999.0,   10.3,   15.0,   14.9,   10.1,    0.1,   -0.0,    0.0,   12.3,   18.7,    9.3,   19.2,   19.1,  999.0,  999.0,  999.0,  999.0,  999.0,  999.0,  999.0,  999.0,  999.0,  999.0,  999.0,  999.0,  999.0
2005/08/24 05:40,  999.0,   -1.1,   -1.6,   -1.3,   -1.6,   -2.8,   -3.0,   -2.4,   -1.9,   -1.7,  999.0,  999.0,  999.0,  999.0,  999.0,  999.0,  999.0,  999.0,  999.0,  999.0,  -11.3,  -10.2,  999.0,  999.0,  999.0,  999.0,  999.0,  -25.8,  999.0,  999.0,  999.0,  999.0,  999.0,  999.0,    0.0,  999.0,   -0.0,    0.1,   -0.1,    0.0,   -0.1,    0.0,   -0.0,    0.1,    0.2,    0.1,   -0.0,   -0.1,  999.0,  999.0,   -0.2,  999.0,  999.0,  999.0,  999.0,  999.0,  999.0,  999.0,  999.0,  999.0,  999.0,  999.0,  999.0
2005/08/24 05:50,  999.0,   -1.1,   -0.8,   -1.0,   -0.8,   -2.5,   -2.7,   -2.0,   -1.9,   -1.0,  999.0,  999.0,  999.0,  999.0,  999.0,  999.0,  999.0,  999.0,  999.0,  999.0,  999.0,  999.0,  999.0,  999.0,  999.0,  999.0,  999.0,  999.0,  999.0,  999.0,  999.0,  999.0,  999.0,  999.0,  999.0,  999.0,   -9.1,   -9.2,   -9.2,   -6.9,   -0.1,  -13.8,   -6.9,   -0.0,    0.1,   -6.8,   -6.8,   -7.0,   -9.2,   -8.9,  999.0,  999.0,  999.0,  999.0,  999.0,  999.0,  999.0,  999.0,  999.0,  999.0,  999.0,  999.0,  999.0
2005/08/24 06:00,  999.0,   -1.1,   -0.6,   -1.1,  999.0,   -3.0,   -3.4,   -2.3,   -1.7,   -0.7,   -0.6,   -0.4,    0.3,  999.0,    3.0,    2.8,    1.3,    1.3,  999.0,  999.0,  999.0,  999.0,  999.0,  999.0,  999.0,  999.0,  999.0,  999.0,  999.0,  999.0,  -40.3,  -40.1,  999.0,  -55.1,  -55.1,  -27.5,  -36.8,  -36.8,  -36.7,  -18.4,  -13.7,  -11.0,  -16.6,   -6.8,   -6.8,  -14.0,  -27.7,  -18.5,  -27.8,  999.0,  999.0,  999.0,  999.0,  999.0,  999.0,  999.0,  999.0,  999.0,  999.0,  999.0,  999.0,  999.0,  999.0
2005/08/24 06:10,  999.0,   -1.5,   -1.5,   -1.2,   -0.3,   -2.2,   -2.8,   -2.3,   -1.6,   -0.8,   -0.6,  999.0,  999.0,  999.0,    2.8,    2.9,    1.3,  999.0,  999.0,  999.0,  999.0,  999.0,  999.0,  999.0,  999.0,  999.0,  999.0,  999.0,  999.0,  999.0,  -35.7,  -35.3,  -25.4,  999.0,  -41.6,  999.0,  999.0,  -41.3,  999.0,  -27.6,  -13.7,  -13.8,   -9.2,   -0.0,  -13.9,   -9.2,  -27.5,  -20.9,  -27.6,    0.2,  -13.5,  999.0,  999.0,  999.0,  999.0,  999.0,  999.0,  999.0,  999.0,  999.0,  999.0,  999.0,  999.0
2005/08/24 06:20,  999.0,   -2.7,   -1.0,   -1.2,   -2.8,   -2.9,   -2.9,  999.0,   -1.7,  999.0,   -0.8,   -0.3,    1.5,    2.0,    2.3,    1.6,    1.4,    0.9,    5.0,    6.4,    3.7,  999.0,  999.0,  999.0,  999.0,  999.0,  999.0,  999.0,  999.0,  999.0,  999.0,  999.0,  999.0,  999.0,  999.0,  999.0,  999.0,  -36.7,  -36.8,  -41.3,  -46.1,  -36.9,  -41.4,  -46.0,  -27.6,  -41.5,  -34.5,  -46.0,  -41.5,  999.0,  999.0,  999.0,  999.0,  999.0,  999.0,  999.0,  999.0,  999.0,  999.0,  999.0,  999.0,  999.0,  999.0
2005/08/24 06:30,  999.0,   -2.1,   -2.5,   -3.1,   -3.0,   -3.0,   -2.8,   -3.0,   -2.5,   -1.0,  999.0,   -0.0,    1.7,    1.9,    1.8,   -0.2,   -0.0,   -0.2,    1.9,    2.9,    3.3,  999.0,  999.0,  999.0,  999.0,  999.0,  999.0,  999.0,  999.0,  999.0,  999.0,  999.0,  999.0,  999.0,  999.0,  999.0,  999.0,  999.0,  999.0,  999.0,  999.0,  999.0,  999.0,  999.0,  999.0,  999.0,  999.0,  999.0,    5.9,  999.0,    7.2,  999.0,  999.0,  999.0,  999.0,  999.0,  999.0,  999.0,  999.0,  999.0,  999.0,  999.0,  999.0
2005/08/24 06:40,  999.0,   -2.9,   -3.8,   -6.3,   -6.6,   -3.4,   -3.2,   -3.3,   -1.9,  999.0,  999.0,    0.8,  999.0,  999.0,   -1.8,  999.0,  999.0,  999.0,  999.0,  999.0,  999.0,  999.0,  999.0,  999.0,  999.0,    0.1,    0.0,   -0.0,   -0.1,    0.0,   -0.1,  999.0,  999.0,   -0.0,   -0.1,  999.0,    0.0,   -0.2,  999.0,  999.0,  999.0,  999.0,  999.0,  999.0,  999.0,  999.0,  999.0,  999.0,  999.0,   12.7,   12.7,   13.0,   13.4,   13.2,   13.1,   11.4,   12.0,   14.3,  999.0,  999.0,  999.0,  999.0,  999.0
2005/08/24 06:50,  999.0,   -3.7,  999.0,   -4.4,   -6.4,   -5.6,   -3.8,   -3.0,   -1.8,  999.0,  999.0,  999.0,  999.0,  999.0,  999.0,  999.0,  999.0,  999.0,  999.0,  999.0,  999.0,  999.0,  999.0,  999.0,    0.0,   -0.0,    0.0,   -0.0,   -0.0,   -0.0,    0.0,    0.0,    0.0,   -0.0,    0.0,   -0.1,   -0.1,   -0.1,   -0.0,    0.0,  999.0,  999.0,  999.0,  999.0,  999.0,  999.0,  999.0,   12.0,   13.2,   13.0,   13.0,   12.3,   12.8,   12.7,   11.7,   11.7,   14.4,  999.0,  999.0,  999.0,  999.0,  999.0,  999.0
2005/08/24 07:00,  999.0,   -4.7,   -1.2,   -4.2,   -6.5,   -5.6,   -3.7,   -3.2,   -2.2,  999.0,  999.0,  999.0,  999.0,  999.0,  999.0,  999.0,  999.0,  999.0,  999.0,  999.0,  999.0,  999.0,  -13.4,  -20.1,  -27.5,  -18.3,  -18.3,    0.1,   18.4,   18.3,   18.5,   18.5,   18.4,   18.3,   -0.0,   -0.0,    0.1,    0.0,   -0.0,    0.0,  999.0,    0.1,   -0.0,    0.0,    0.1,  999.0,  -27.8,  999.0,  999.0,  999.0,  999.0,  999.0,  999.0,  999.0,  999.0,  999.0,  999.0,  999.0,  999.0,  999.0,  999.0,  999.0,  999.0
2005/08/24 07:10,  999.0,   -4.5,   -4.0,   -8.1,   -5.1,   -5.2,   -4.8,   -3.8,   -1.9,  999.0,   -1.7,   -1.9,   -1.6,   -1.4,  999.0,   -0.1,    1.7,  999.0,  999.0,  999.0,   15.5,  -10.9,    4.1,  999.0,  999.0,  999.0,  999.0,  999.0,   40.7,   41.4,   41.3,   41.5,   41.3,   41.4,   18.3,   27.6,   27.5,   18.4,   27.6,  999.0,   18.5,  999.0,  999.0,  999.0,  999.0,  999.0,  999.0,  999.0,  999.0,  999.0,  999.0,  999.0,  999.0,  999.0,  999.0,  999.0,  999.0,  999.0,  999.0,  999.0,  999.0,  999.0,  999.0
2005/08/24 07:20,  999.0,   -4.1,   -6.7,   -7.1,   -6.2,   -4.8,   -4.7,   -4.1,   -1.9,   -1.5,   -2.1,   -2.5,   -1.8,   -1.8,  999.0,   -9.8,  -13.7,   -4.8,   -2.2,    1.6,   -0.8,    4.2,    3.8,  999.0,  999.0,  999.0,  999.0,  999.0,  999.0,  999.0,  999.0,  999.0,  999.0,  999.0,  999.0,   -0.0,   -0.1,   -0.0,   -0.1,   -0.0,   -7.0,   -9.3,  999.0,  999.0,  999.0,  999.0,  999.0,  999.0,  999.0,  999.0,  999.0,  999.0,  999.0,  999.0,  999.0,  999.0,  999.0,  999.0,  999.0,  999.0,  999.0,  999.0,  999.0
2005/08/24 07:30,  999.0,   -5.1,   -6.7,   -6.0,   -4.8,   -5.6,   -4.7,   -4.2,   -2.6,   -2.2,   -2.4,   -1.7,   -1.6,   -1.1,  999.0,   -0.2,    0.3,  999.0,    1.0,  999.0,  999.0,  999.0,  999.0,  999.0,  999.0,  999.0,  999.0,  999.0,    0.0,   -0.0,   -0.0,   -0.0,    0.0,    0.0,   -0.0,    0.0,   -0.0,   -0.1,    0.0,   -0.0,   -0.1,   -0.1,   -0.1,   -0.1,   -0.0,   -0.1,  999.0,  999.0,  999.0,  999.0,  999.0,  -38.6,  999.0,  999.0,  999.0,  999.0,  999.0,  999.0,  999.0,  999.0,  999.0,  999.0,  999.0
2005/08/24 07:40,  999.0,   -5.6,   -6.6,  999.0,   -5.6,   -7.0,   -6.1,   -4.4,   -4.2,   -3.5,   -2.8,   -2.3,   -1.6,   -1.2,   -0.7,    0.0,    0.2,  999.0,  999.0,  999.0,  999.0,  999.0,  999.0,  999.0,  999.0,  999.0,  999.0,  999.0,   13.9,   -0.0,   -0.0,   -0.0,   -0.0,   -0.0,    0.1,   -0.0,    0.0,    0.0,   -0.0,    0.1,    0.0,   -0.3,    0.1,  999.0,  999.0,  999.0,  999.0,  999.0,  999.0,  999.0,  999.0,  999.0,  999.0,  999.0,  999.0,  999.0,  999.0,  999.0,  999.0,  999.0,  999.0,  999.0,  999.0
2005/08/24 07:50,  999.0,   -6.4,   -6.7,   -5.8,   -6.8,   -6.8,   -6.3,   -5.5,   -4.6,   -3.2,   -3.3,   -2.2,   -1.8,   -1.6,   -0.7,   -0.2,  999.0,    0.5,    0.7,    0.9,  999.0,  999.0,  999.0,  999.0,  999.0,  -21.8,  999.0,  999.0,   14.2,    0.1,   -2.9,   -9.2,   -9.1,   -6.9,   -6.9,  -13.8,   -9.2,   -0.0,    0.0,   -0.1,  999.0,  999.0,  999.0,  999.0,  999.0,  999.0,  999.0,  999.0,   17.8,   15.3,   10.4,  999.0,  999.0,  999.0,  999.0,  999.0,  999.0,  999.0,  999.0,  999.0,  999.0,  999.0,  999.0
2005/08/24 08:00,  999.0,   -5.5,   -7.3,   -7.2,   -7.1,   -6.4,   -5.7,   -5.6,   -4.0,   -3.6,   -2.6,   -2.3,   -1.6,   -2.1,   -1.7,   -1.5,   -1.0,  999.0,  999.0,  999.0,   -7.1,  999.0,  -11.7,  999.0,  -12.2,  999.0,  999.0,  999.0,  999.0,  999.0,  999.0,  -27.4,  -41.4,  -41.3,  -27.6,  -36.9,  -34.5,  -40.6,   28.7,   27.5,   13.8,   13.7,   13.8,   19.8,   13.8,  999.0,  999.0,   22.2,   22.1,   14.8,    9.1,  999.0,  999.0,  999.0,  999.0,  999.0,  999.0,  999.0,  999.0,  999.0,  999.0,  999.0,  999.0
2005/08/24 08:10,  999.0,   -4.4,   -6.7,   -8.1,   -6.7,   -6.8,   -7.3,   -4.7,   -5.1,   -2.6,   -2.5,   -2.1,   -1.9,   -1.6,   -1.3,   -1.3,   -1.3,  999.0,  999.0,  999.0,    2.0,  999.0,    2.7,  999.0,   15.4,  999.0,   23.6,   28.4,   28.6,  999.0,   16.3,   10.7,   16.5,   19.4,    8.3,   27.5,   13.8,    7.6,   12.1,   17.3,   20.6,   32.1,   23.8,   28.6,   10.1,  999.0,  999.0,    4.2,    5.4,   10.5,  999.0,  999.0,  999.0,  999.0,  999.0,  999.0,  999.0,  999.0,  999.0,  999.0,  999.0,  999.0,  999.0
2005/08/24 08:20,  999.0,   -3.6,   -4.5,   -7.0,   -6.8,   -7.0,   -6.5,   -2.3,   -6.5,   -3.2,   -2.5,   -2.1,   -2.0,   -1.9,   -1.8,   -1.1,   -1.6,   -1.4,    0.3,    0.7,    1.1,   11.4,  999.0,  999.0,  999.0,  999.0,   34.5,   41.2,   41.3,   27.5,   20.8,   27.5,   27.5,   27.6,   27.5,   27.6,   27.5,   34.4,   34.4,   34.4,   33.0,   22.1,    5.5,   -0.0,    0.2,  999.0,  999.0,  999.0,  999.0,  -24.4,  999.0,  999.0,  999.0,  999.0,  999.0,  999.0,  999.0,  999.0,  999.0,  999.0,  999.0,  999.0,  999.0
2005/08/24 08:30,  999.0,   -3.6,   -6.9,   -7.3,   -6.4,  999.0,   -6.5,   -4.9,   -5.5,   -3.2,   -3.7,   -2.9,   -2.0,   -1.8,   -1.5,   -1.2,   -1.9,   -2.1,   -0.4,    0.7,    0.9,    1.3,    2.1,    2.7,  999.0,  999.0,  999.0,  999.0,  999.0,  999.0,  999.0,  999.0,  999.0,  999.0,  999.0,  999.0,  999.0,  999.0,  999.0,  999.0,  999.0,  999.0,  999.0,  999.0,  999.0,  999.0,    7.2,    6.2,    5.6,    4.8,  999.0,  999.0,  999.0,  999.0,  999.0,  999.0,  999.0,  999.0,  999.0,  999.0,  999.0,  999.0,  999.0
2005/08/24 08:40,  999.0,   -3.7,  999.0,   -6.6,   -6.4,   -5.9,   -5.8,   -5.2,   -4.7,   -4.2,  999.0,   -1.9,   -1.9,  999.0,   -1.3,   -1.1,   -1.1,   -1.9,   -1.5,   -0.7,    0.1,  999.0,    2.6,  999.0,  999.0,  999.0,  999.0,  999.0,   -0.0,   -0.0,    8.9,    0.0,    0.0,   -5.4,   -6.8,   -0.0,    0.0,    5.8,    6.0,    5.7,    0.0,    0.0,    7.2,    5.6,    6.9,   -0.0,    6.1,    1.8,    1.5,    4.1,    6.9,    0.2,  999.0,  999.0,  999.0,  999.0,  999.0,  999.0,  999.0,  999.0,  999.0,  999.0,  999.0
2005/08/24 08:50,  999.0,   -3.3,  999.0,   -6.9,   -5.9,   -6.2,   -5.6,   -5.6,   -4.1,   -3.6,   -3.7,   -3.0,   -2.8,   -2.1,   -1.7,   -1.0,  999.0,   -1.9,  999.0,   -0.7,  999.0,  999.0,  999.0,  999.0,  999.0,  999.0,  999.0,  999.0,    0.0,   -0.0,    0.0,    0.0,   -0.1,   -0.1,    0.0,    0.1,    0.0,    0.0,   -0.0,    0.0,   -0.0,    0.2,   -0.1,    0.0,  999.0,    0.0,    0.1,    0.0,  999.0,    0.1,  999.0,  999.0,  999.0,  999.0,  999.0,  999.0,  999.0,  999.0,  999.0,  999.0,  999.0,  999.0,  999.0
2005/08/24 09:00,  999.0,   -3.4,   -3.7,   -6.4,   -7.2,   -7.4,   -5.4,   -6.1,   -5.0,   -4.1,   -4.0,   -3.3,   -3.0,   -2.5,   -2.1,   -1.5,  999.0,  999.0,  999.0,   -1.9,   -0.8,   -0.2,  999.0,    1.7,  999.0,  999.0,  999.0,  999.0,  999.0,  999.0,  999.0,  999.0,  999.0,  999.0,  999.0,    0.0,    0.1,   -0.0,    0.0,    0.0,   -5.5,    5.5,    6.7,   -5.5,   -5.5,  -11.0,   -6.8,   -2.5,   -4.4,    0.0,  -14.0,    9.1,  999.0,  999.0,  999.0,    0.1,  999.0,  999.0,  999.0,  999.0,  999.0,  999.0,  999.0
2005/08/24 09:10,  999.0,   -3.8,   -4.8,   -6.6,   -7.8,   -7.9,   -6.6,   -5.1,   -4.1,   -4.3,   -3.4,   -3.3,   -3.0,   -2.5,   -2.1,   -1.3,  999.0,   -0.9,   -1.8,  999.0,  999.0,  999.0,  999.0,  999.0,  999.0,  999.0,  999.0,  -27.5,  -27.5,  -34.4,  -34.4,  -27.5,  -34.4,  -36.7,  -36.7,  -27.6,  -36.8,  -36.8,  -36.7,  -34.5,  -34.5,  -34.5,  -27.7,  -27.7,  -34.6,  -27.5,  -18.5,  -27.6,    0.0,    0.0,  -18.5,  -18.4,   13.9,  999.0,  999.0,  999.0,  999.0,  999.0,  999.0,  999.0,  999.0,  999.0,  999.0
2005/08/24 09:20,  999.0,   -6.5,   -5.0,   -4.3,   -6.3,   -7.8,   -8.2,   -5.8,   -5.8,   -5.7,   -5.9,   -5.7,   -3.7,   -3.5,   -2.7,   -2.1,  999.0,   -1.2,   -1.8,  999.0,  999.0,  999.0,  999.0,  999.0,  999.0,  999.0,  999.0,   -0.0,    0.0,   -0.1,    0.0,   -0.0,   -0.0,   -0.1,   -0.0,   -0.1,   -0.1,    0.0,   -0.1,   -0.1,   -0.1,   -0.1,   -0.2,   -0.2,   -0.2,   -0.2,   -0.1,   -0.1,   -0.1,   -0.3,  999.0,    0.2,  999.0,  999.0,  999.0,  999.0,  999.0,  999.0,  999.0,  999.0,  999.0,  999.0,  999.0
2005/08/24 09:30,  999.0,  999.0,   -2.2,  999.0,   -5.3,   -7.6,   -7.4,   -8.3,   -7.1,   -6.1,   -5.5,   -4.8,   -3.8,   -3.2,   -2.8,  999.0,  999.0,  999.0,  999.0,  999.0,  999.0,  999.0,  999.0,  999.0,  999.0,  999.0,  999.0,  999.0,  999.0,  999.0,   -9.2,  -13.9,   -9.2,   -9.2,    0.0,   -6.9,   -6.5,   -6.2,   -0.0,   -0.1,   -6.9,   -4.7,   -4.3,   -9.2,    0.1,   -0.1,   -8.0,   -0.2,  -14.3,   -0.0,  999.0,   -0.2,  999.0,  999.0,  999.0,  999.0,  999.0,  999.0,  999.0,  999.0,  999.0,  999.0,  999.0
2005/08/24 09:40,  999.0,   -2.7,   -0.7,   -3.9,   -9.5,   -9.1,   -9.3,   -7.3,   -6.4,   -5.1,   -5.4,   -3.9,   -3.4,   -2.7,   -2.8,   -2.0,  999.0,   -1.0,   -1.9,   -1.7,    0.5,  999.0,  999.0,  -12.6,    1.2,  999.0,  999.0,  999.0,  999.0,  999.0,  -41.2,  -41.3,  -27.6,  -27.6,   -9.2,   -9.2,  -13.8,  -10.2,   -6.9,  -10.3,   -8.4,  -13.7,   -2.2,   -1.8,   -0.1,  -22.6,   -2.1,   -5.4,   -4.5,   -9.2,    0.1,   13.8,    9.2,  999.0,  999.0,  999.0,  999.0,  999.0,  999.0,  999.0,  999.0,  999.0,  999.0
2005/08/24 09:50,  999.0,   -1.5,   -2.2,   -3.2,   -8.6,   -8.2,   -8.0,   -7.8,   -7.0,   -6.0,   -4.7,   -4.0,   -3.0,   -2.5,   -2.4,   -1.9,   -2.2,  999.0,   -0.4,   -0.8,    0.9,    0.5,  999.0,    1.3,    6.0,  999.0,  999.0,  999.0,  999.0,  999.0,  999.0,  999.0,  999.0,  999.0,   -9.2,   -9.2,   -6.9,  -13.8,   -0.1,   -0.1,    0.0,   -0.3,   -0.0,   -6.1,  999.0,  999.0,  999.0,  999.0,  999.0,  999.0,  999.0,  999.0,  999.0,  999.0,  999.0,  999.0,  999.0,  999.0,  999.0,  999.0,  999.0,  999.0,  999.0
2005/08/24 10:00,  999.0,   -2.1,   -1.0,   -3.8,   -7.7,   -8.9,   -8.6,   -8.9,   -9.5,   -7.8,   -5.0,   -4.3,   -3.1,   -2.9,   -2.8,   -2.4,   -2.0,   -1.8,   -1.5,   -1.5,    0.0,    0.2,    0.0,    0.4,    1.2,  999.0,  999.0,  999.0,  999.0,  999.0,  999.0,  999.0,  999.0,  999.0,  999.0,  999.0,  999.0,   14.1,    9.4,  999.0,  999.0,   15.1,   -0.1,   15.0,  999.0,  999.0,  999.0,  999.0,  999.0,  999.0,  999.0,  999.0,  999.0,  999.0,  999.0,  999.0,  999.0,  999.0,  999.0,  999.0,  999.0,  999.0,  999.0
2005/08/24 10:10,  999.0,   -2.9,   -2.4,   -2.7,   -6.3,   -7.4,   -7.0,   -8.0,   -6.6,   -6.4,   -4.6,   -3.9,   -2.4,   -1.7,   -1.8,   -2.1,   -2.0,   -2.4,   -2.0,   -1.1,   -0.1,    0.3,    0.2,    0.0,    1.6,  999.0,  999.0,  999.0,  999.0,  999.0,  999.0,  999.0,  999.0,  999.0,   27.5,  999.0,  999.0,   28.0,   28.2,   28.4,   28.2,   29.7,   30.4,  999.0,  999.0,  999.0,  999.0,  999.0,  999.0,  999.0,  999.0,  999.0,  999.0,  999.0,  999.0,  999.0,  999.0,  999.0,  999.0,  999.0,  999.0,  999.0,  999.0
2005/08/24 10:20,  999.0,   -1.4,   -1.2,   -1.9,   -4.0,   -8.2,   -7.2,   -7.5,   -6.7,   -6.4,   -4.3,   -3.2,   -2.0,   -1.2,   -1.4,   -1.8,   -1.7,   -1.7,   -1.4,   -2.1,   -0.7,    0.0,    0.3,  999.0,    1.1,    1.2,    1.5,    1.0,  999.0,  999.0,  999.0,  999.0,  999.0,  999.0,  999.0,  999.0,   27.4,   27.4,   28.0,  999.0,   27.8,   28.9,   29.7,  999.0,  999.0,  999.0,  999.0,  999.0,  999.0,  999.0,  999.0,  999.0,  999.0,  999.0,  999.0,  999.0,  999.0,  999.0,  999.0,  999.0,  999.0,  999.0,  999.0
2005/08/24 10:30,  999.0,   -0.7,   -0.9,   -2.7,   -6.3,   -7.6,   -6.3,   -5.6,   -5.3,   -5.9,   -4.6,   -2.9,   -1.8,   -1.1,   -0.7,   -1.2,   -1.3,   -1.1,   -1.9,   -1.2,   -1.1,    0.1,   -0.2,    0.9,    1.5,  999.0,  999.0,  999.0,  999.0,  999.0,  999.0,  999.0,  999.0,  999.0,   55.1,   41.2,  999.0,   48.2,   55.0,   41.3,   41.5,   44.8,   42.6,  999.0,  999.0,   55.6,  999.0,  999.0,  999.0,  999.0,  999.0,  999.0,  999.0,  999.0,  999.0,  999.0,  999.0,  999.0,  999.0,  999.0,  999.0,  999.0,  999.0
2005/08/24 10:40,  999.0,   -1.8,   -0.8,   -2.4,   -8.0,   -5.9,   -7.0,   -5.5,   -5.7,   -6.1,   -3.9,   -2.9,   -1.0,   -0.5,   -1.1,   -1.1,   -1.5,   -1.9,   -2.1,   -2.4,   -1.6,   -0.5,   -0.3,  999.0,  999.0,  999.0,  999.0,  999.0,  999.0,  999.0,  999.0,  999.0,  999.0,  999.0,  999.0,   55.0,  999.0,   55.1,   55.1,   55.0,   55.0,   55.0,   55.1,  999.0,  999.0,  999.0,  999.0,  999.0,  999.0,  999.0,  999.0,  999.0,  999.0,  999.0,  999.0,  999.0,  999.0,  999.0,  999.0,  999.0,  999.0,  999.0,  999.0
2005/08/24 10:50,  999.0,   -0.6,   -1.8,   -3.7,   -8.0,   -8.3,   -7.1,   -6.1,   -5.9,   -6.1,   -5.3,   -3.9,   -2.1,   -0.9,   -1.8,   -3.7,   -2.4,   -3.0,   -3.0,   -2.5,   -1.7,   -0.9,   -0.2,  999.0,    0.9,  999.0,  999.0,  999.0,  999.0,  999.0,  999.0,  999.0,  999.0,  999.0,  999.0,  999.0,  999.0,  999.0,  999.0,  999.0,  999.0,  999.0,  999.0,  999.0,  999.0,  999.0,  999.0,  999.0,  999.0,  999.0,  999.0,  999.0,  999.0,  999.0,  999.0,  999.0,  999.0,  999.0,  999.0,  999.0,  999.0,  999.0,  999.0
2005/08/24 11:00,  999.0,   -1.2,   -1.2,   -3.3,  999.0,   -6.3,   -6.4,   -4.5,   -5.5,   -5.9,   -5.5,   -4.7,   -3.3,   -1.8,   -0.7,   -0.4,  999.0,  999.0,   -2.5,   -2.9,   -2.2,   -1.1,   -0.3,    0.0,    1.2,    1.0,    1.2,    1.9,    1.3,    0.4,   -0.5,   -1.3,  999.0,  999.0,  999.0,  999.0,  999.0,  999.0,  999.0,  999.0,    2.6,    4.5,    5.7,  999.0,  999.0,  999.0,  999.0,  999.0,  999.0,  999.0,  999.0,  999.0,  999.0,  999.0,  999.0,  999.0,  999.0,  999.0,  999.0,  999.0,  999.0,  999.0,  999.0
2005/08/24 11:10,  999.0,   -1.8,   -2.2,   -1.6,   -7.4,   -8.0,   -5.8,   -5.4,   -5.6,   -6.1,   -5.7,   -5.6,   -4.2,   -2.4,   -1.5,   -1.1,   -0.8,   -1.8,   -2.5,   -2.3,   -1.9,   -1.6,   -0.9,   -0.6,   -0.1,    0.2,    1.2,    1.0,    1.9,    0.6,  999.0,   -1.5,  999.0,  999.0,  999.0,  999.0,  999.0,  999.0,  999.0,  999.0,  999.0,    4.6,    5.6,  999.0,  999.0,  999.0,  999.0,  999.0,  999.0,  999.0,  999.0,  999.0,  999.0,  999.0,  999.0,  999.0,  999.0,  999.0,  999.0,  999.0,  999.0,  999.0,  999.0
2005/08/24 11:20,  999.0,   -2.6,   -3.2,  999.0,   -6.8,   -6.4,   -6.5,   -5.8,   -5.7,   -5.8,   -4.7,   -3.7,   -3.1,   -2.1,   -1.0,   -0.3,    0.1,   -0.1,  999.0,   -1.4,   -0.8,   -0.5,   -0.1,   -0.7,   -0.2,  999.0,  999.0,  999.0,  999.0,  999.0,  999.0,  999.0,  999.0,  999.0,  999.0,  999.0,  999.0,  999.0,  999.0,  999.0,  999.0,    3.7,    4.9,  999.0,  999.0,  999.0,  999.0,  999.0,  999.0,  999.0,  999.0,  999.0,  999.0,  999.0,  999.0,  999.0,  999.0,  999.0,  999.0,  999.0,  999.0,  999.0,  999.0
2005/08/24 11:30,  999.0,   -2.6,   -2.7,   -4.9,   -6.7,   -7.2,   -6.4,   -4.6,   -6.3,   -5.8,   -6.4,   -5.2,   -4.4,   -3.1,   -1.4,   -0.9,   -0.6,   -0.9,   -1.4,   -1.0,   -0.8,   -0.4,   -0.2,    0.0,  999.0,    0.4,    0.3,  999.0,  999.0,    1.3,  999.0,   -1.9,  999.0,  999.0,  999.0,  999.0,  999.0,  999.0,  999.0,  999.0,    3.7,    3.8,    5.0,  999.0,  999.0,  999.0,  999.0,  999.0,  999.0,  999.0,  999.0,  999.0,  999.0,  999.0,  999.0,  999.0,  999.0,  999.0,  999.0,  999.0,  999.0,  999.0,  999.0
2005/08/24 11:40,  999.0,   -2.7,   -1.9,   -2.5,   -7.5,   -7.0,  999.0,   -5.6,   -6.1,   -6.2,   -5.8,   -4.4,   -3.0,   -1.8,   -0.9,   -0.7,   -0.8,   -0.6,   -1.0,   -0.9,   -1.5,   -0.4,   -0.9,  999.0,   -1.2,   -1.1,   -0.6,    0.1,    0.9,    0.9,   -0.6,  999.0,  999.0,  999.0,  999.0,  999.0,  999.0,  999.0,  999.0,  999.0,    2.8,    3.7,    4.8,  999.0,  999.0,  999.0,  999.0,  999.0,  999.0,  999.0,  999.0,  999.0,  999.0,  999.0,  999.0,  999.0,  999.0,  999.0,  999.0,  999.0,  999.0,  999.0,  999.0
2005/08/24 11:50,  999.0,   -3.1,   -2.1,   -4.4,   -6.1,   -6.1,   -6.6,   -6.7,   -6.0,   -6.4,  999.0,   -4.4,   -3.7,   -2.2,   -1.4,   -0.4,    0.2,    0.1,   -1.2,   -1.2,   -1.6,  999.0,  999.0,   -0.7,   -0.9,   -0.6,   -0.0,    0.3,    0.8,    0.3,   -1.3,   -3.1,  999.0,  999.0,  999.0,    0.3,  999.0,  999.0,  999.0,  999.0,    1.3,    2.6,  999.0,  999.0,  999.0,  999.0,  999.0,  999.0,  999.0,  999.0,  999.0,  999.0,  999.0,  999.0,  999.0,  999.0,  999.0,  999.0,  999.0,  999.0,  999.0,  999.0,  999.0
2005/08/24 12:00,  999.0,   -1.0,   -0.9,   -2.3,   -6.5,   -6.1,   -6.5,   -5.3,   -6.5,   -6.3,   -5.9,   -4.7,   -3.9,   -3.2,   -2.9,   -1.8,   -0.3,   -0.4,   -2.1,  999.0,   -2.2,   -1.8,   -0.4,   -0.4,   -0.9,   -1.6,   -0.0,    1.0,    1.1,    0.7,   -1.5,   -2.6,  999.0,  999.0,  999.0,    1.0,  999.0,  999.0,  999.0,  999.0,    2.5,    2.8,  999.0,  999.0,  999.0,  999.0,  999.0,  999.0,  999.0,  999.0,  999.0,  999.0,  999.0,  999.0,  999.0,  999.0,  999.0,  999.0,  999.0,  999.0,  999.0,  999.0,  999.0
2005/08/24 12:10,  999.0,   -1.8,   -1.4,   -1.2,   -6.5,   -7.9,  999.0,   -5.8,   -6.4,   -6.8,   -6.4,   -4.8,   -4.3,   -2.9,   -2.1,   -1.8,   -0.7,   -0.1,   -2.5,  999.0,   -3.3,   -2.3,   -2.8,   -2.4,   -2.2,   -2.3,   -0.7,    0.1,   -0.8,   -0.0,   -1.1,   -3.2,  999.0,  999.0,  999.0,  999.0,  999.0,  999.0,  999.0,  999.0,    2.6,  999.0,  999.0,  999.0,  999.0,  999.0,  999.0,  999.0,  999.0,  999.0,  999.0,  999.0,  999.0,  999.0,  999.0,  999.0,  999.0,  999.0,  999.0,  999.0,  999.0,  999.0,  999.0
2005/08/24 12:20,  999.0,   -1.3,   -0.9,   -1.1,   -6.0,   -9.0,   -8.0,   -7.2,   -5.8,   -6.8,   -6.2,   -5.5,   -5.0,   -3.3,   -2.8,   -1.9,   -1.5,   -0.6,   -1.4,   -2.3,   -2.4,   -1.5,   -1.3,   -1.4,   -1.0,   -1.6,   -1.4,   -1.6,   -1.2,   -0.3,   -1.1,   -2.6,  999.0,  999.0,  999.0,  999.0,  999.0,  999.0,  999.0,  999.0,    2.1,  999.0,  999.0,  999.0,  999.0,  999.0,  999.0,  999.0,  999.0,  999.0,  999.0,  999.0,  999.0,  999.0,  999.0,  999.0,  999.0,  999.0,  999.0,   -0.6,   -0.7,  999.0,  999.0
2005/08/24 12:30,  999.0,   -3.1,   -2.1,  999.0,   -5.2,   -8.1,   -7.3,   -5.8,   -6.0,   -6.5,   -6.5,   -5.9,   -5.3,   -4.1,   -3.8,   -2.5,   -2.3,  999.0,   -1.2,   -1.4,   -2.7,   -1.1,   -1.5,  999.0,   -0.1,   -0.3,    0.7,  999.0,   -0.4,   -0.9,    0.3,   -2.0,  999.0,  999.0,  999.0,  999.0,    0.6,  999.0,  999.0,  999.0,  999.0,  999.0,  999.0,  999.0,  999.0,  999.0,  999.0,  999.0,  999.0,  999.0,  999.0,  999.0,  999.0,  999.0,  999.0,  999.0,  999.0,  999.0,  999.0,  999.0,  999.0,  999.0,  999.0
2005/08/24 12:40,  999.0,   -3.7,   -2.4,   -2.9,   -4.2,   -8.1,   -7.9,   -5.7,   -5.3,   -6.0,   -6.1,   -6.3,   -4.9,   -4.5,   -3.7,   -3.0,   -2.8,   -2.1,   -1.8,   -2.1,   -3.1,   -1.1,   -1.0,   -1.2,   -0.0,   -0.7,   -0.5,    0.1,   -1.3,   -1.6,   -1.6,   -1.9,   -2.5,   -0.7,  999.0,  999.0,  999.0,  999.0,  999.0,  999.0,  999.0,  999.0,  999.0,  999.0,  999.0,  999.0,  999.0,  999.0,  999.0,  999.0,  999.0,  999.0,  999.0,  999.0,  999.0,  999.0,  999.0,  999.0,  999.0,  999.0,  999.0,  999.0,  999.0
2005/08/24 12:50,  999.0,   -2.3,   -5.9,   -3.0,   -6.2,   -6.3,   -5.4,   -5.2,   -7.1,   -6.6,   -5.3,   -5.5,   -5.0,   -4.5,   -3.9,   -3.4,   -2.4,   -2.1,   -2.8,   -1.7,   -2.3,   -1.4,   -0.5,   -1.0,    0.3,   -0.6,   -0.0,    0.2,   -0.8,   -1.0,   -1.5,   -1.7,  999.0,  999.0,  999.0,  999.0,  999.0,  999.0,  999.0,  999.0,  999.0,  999.0,  999.0,  999.0,  999.0,  999.0,  999.0,  999.0,  999.0,  999.0,  999.0,  999.0,  999.0,  999.0,  999.0,  999.0,  999.0,  999.0,  999.0,  999.0,  999.0,  999.0,  999.0
2005/08/24 13:00,  999.0,   -2.4,   -2.3,   -1.3,   -6.5,   -8.2,   -8.9,   -5.7,   -5.9,   -6.3,   -5.7,   -5.4,   -5.0,   -5.2,   -4.5,   -3.7,   -3.8,   -2.7,   -2.0,   -1.2,   -0.4,   -0.7,   -1.2,   -1.6,   -0.3,   -0.1,    1.1,    1.2,  999.0,  999.0,   -0.5,  999.0,   -1.3,  999.0,  999.0,  999.0,  999.0,  999.0,  999.0,  999.0,  999.0,  999.0,  999.0,  999.0,  999.0,  999.0,  999.0,  999.0,  999.0,  999.0,  999.0,  999.0,  999.0,  999.0,  999.0,  999.0,  999.0,  999.0,  999.0,  999.0,  999.0,  999.0,  999.0
2005/08/24 13:10,  999.0,   -3.5,   -1.8,   -1.5,   -5.6,   -8.9,   -8.8,   -8.5,   -8.0,   -8.1,   -6.6,   -5.9,   -5.1,   -3.9,   -2.9,   -2.0,   -2.1,   -1.5,   -1.1,   -1.1,  999.0,   -1.7,   -1.2,  999.0,    0.3,    0.7,  999.0,    1.3,    1.0,  999.0,  999.0,   -2.5,   -3.5,   -1.8,  999.0,    1.3,  999.0,  999.0,  999.0,  999.0,  999.0,  999.0,  999.0,  999.0,  999.0,  999.0,  999.0,  999.0,  999.0,  999.0,  999.0,  999.0,  999.0,  999.0,  999.0,  999.0,  999.0,  999.0,  999.0,  999.0,  999.0,  999.0,  999.0
2005/08/24 13:20,  999.0,   -5.8,   -2.0,  999.0,   -7.4,   -9.8,   -9.4,   -8.7,   -8.4,   -7.5,   -6.9,   -5.7,   -4.4,   -4.0,   -2.6,   -1.4,   -1.0,  999.0,   -1.1,   -1.5,   -1.7,   -1.1,   -0.6,   -0.9,    0.3,    0.8,  999.0,  999.0,    0.7,  999.0,   -1.8,   -2.8,   -2.6,   -2.0,  999.0,  999.0,  999.0,  999.0,  999.0,  999.0,  999.0,    4.3,  999.0,  999.0,  999.0,  999.0,  999.0,  999.0,  999.0,  999.0,  999.0,  999.0,  999.0,  999.0,  999.0,  999.0,  999.0,  999.0,  999.0,  999.0,  999.0,  999.0,  999.0
2005/08/24 13:30,  999.0,   -3.4,   -2.7,   -2.6,   -8.3,   -9.3,   -9.1,   -8.4,   -9.1,   -7.8,   -7.0,   -6.1,   -4.6,   -3.8,   -2.2,   -2.0,   -0.9,   -1.1,   -0.9,   -0.8,   -2.1,   -1.4,   -1.9,   -1.1,    0.3,    1.2,    1.2,    1.8,  999.0,   -0.8,   -2.9,  999.0,   -3.2,   -3.1,  999.0,  999.0,  999.0,  999.0,  999.0,  999.0,  999.0,  999.0,  999.0,  999.0,  999.0,  999.0,  999.0,  999.0,  999.0,  999.0,  999.0,  999.0,  999.0,  999.0,  999.0,  999.0,  999.0,  999.0,  999.0,  999.0,  999.0,  999.0,  999.0
2005/08/24 13:40,  999.0,   -0.6,   -0.5,   -1.5,   -5.4,   -6.1,   -9.8,   -9.9,   -8.6,   -9.0,   -7.8,   -7.8,   -6.7,   -5.6,   -5.0,   -4.4,   -3.1,   -1.9,   -1.6,   -1.9,   -2.3,   -1.8,   -1.2,   -0.6,  999.0,  999.0,  999.0,    1.3,  999.0,   -1.4,   -3.6,  999.0,   -2.6,   -2.6,  999.0,  999.0,  999.0,  999.0,  999.0,  999.0,  999.0,  999.0,  999.0,  999.0,  999.0,  999.0,  999.0,  999.0,  999.0,  999.0,  999.0,  999.0,  999.0,  999.0,  999.0,  999.0,  999.0,  999.0,  999.0,  999.0,  999.0,  999.0,  999.0
2005/08/24 13:50,  999.0,   -3.7,   -4.3,   -3.1,   -6.8,   -7.6,   -9.1,  -10.3,   -9.8,  -10.3,  -10.0,   -8.3,   -6.9,   -5.9,   -4.8,   -3.2,   -2.9,   -2.3,   -1.8,   -1.0,   -1.6,   -1.6,  999.0,   -0.3,    0.8,    1.1,    1.4,    1.3,  999.0,   -1.8,   -3.3,  999.0,   -1.7,   -1.4,  999.0,  999.0,  999.0,  999.0,  999.0,  999.0,  999.0,  999.0,  999.0,  999.0,  999.0,  999.0,  999.0,  999.0,  999.0,  999.0,  999.0,  999.0,  999.0,  999.0,  999.0,  999.0,  999.0,  999.0,  999.0,  999.0,  999.0,  999.0,  999.0
2005/08/24 14:00,  999.0,   -4.4,   -6.8,   -8.1,   -9.4,  -10.1,   -6.6,   -5.1,  -10.8,  -11.1,   -5.7,   -8.2,   -6.9,   -7.9,   -4.2,  999.0,   -3.0,   -2.4,   -2.4,   -2.1,   -2.4,   -1.6,   -2.9,   -2.5,    0.0,  999.0,    1.3,    1.7,   -0.8,   -2.5,   -3.9,  999.0,  999.0,  999.0,  999.0,  999.0,  999.0,  999.0,  999.0,  999.0,  999.0,  999.0,  999.0,  999.0,  999.0,  999.0,  999.0,  999.0,  999.0,  999.0,  999.0,  999.0,  999.0,  999.0,  999.0,  999.0,  999.0,  999.0,  999.0,  999.0,  999.0,  999.0,  999.0
2005/08/24 14:10,  999.0,   -4.3,   -4.9,   -7.3,   -9.4,  -10.0,  -10.0,   -8.0,   -8.5,   -9.1,   -8.5,   -8.0,   -6.7,   -5.5,   -3.9,   -3.1,   -3.2,   -3.4,   -2.7,   -1.9,   -1.5,   -2.0,   -1.7,   -1.4,    0.1,    1.0,    0.6,    0.2,   -1.4,   -3.5,   -4.2,  999.0,   -2.0,  999.0,  999.0,  999.0,  999.0,  999.0,  999.0,  999.0,  999.0,  999.0,  999.0,  999.0,  999.0,  999.0,  999.0,  999.0,  999.0,  999.0,  999.0,  999.0,  999.0,  999.0,  999.0,  999.0,  999.0,  999.0,  999.0,  999.0,  999.0,  999.0,  999.0
2005/08/24 14:20,  999.0,   -1.2,   -0.7,   -2.4,   -7.5,   -9.5,   -9.5,   -8.1,   -7.5,   -7.9,   -7.4,   -7.2,   -6.5,   -5.3,   -3.9,   -3.2,   -2.2,   -0.6,   -0.4,   -0.4,   -0.4,    0.5,   -0.7,   -1.1,    0.3,    0.9,    1.2,    0.1,   -2.6,   -4.4,   -3.8,   -3.0,   -1.5,  999.0,  999.0,  999.0,  999.0,  999.0,  999.0,  999.0,  999.0,  999.0,  999.0,  999.0,  999.0,  999.0,  999.0,  999.0,  999.0,  999.0,  999.0,  999.0,  999.0,  999.0,  999.0,  999.0,  999.0,  999.0,  999.0,  999.0,  999.0,  999.0,  999.0
2005/08/24 14:30,  999.0,   -2.6,  999.0,   -1.8,   -7.4,  999.0,   -9.4,   -8.6,   -7.5,   -7.8,   -7.8,   -7.6,   -6.0,   -5.6,   -4.4,   -3.1,   -2.3,   -1.6,   -0.8,   -0.9,   -0.6,   -0.5,   -1.1,   -1.9,   -0.4,   -0.3,  999.0,    0.2,   -2.2,  999.0,   -4.1,   -2.5,  999.0,    1.1,  999.0,  999.0,  999.0,  999.0,  999.0,  999.0,  999.0,  999.0,  999.0,  999.0,  999.0,  999.0,  999.0,  999.0,  999.0,  999.0,  999.0,  999.0,  999.0,  999.0,  999.0,  999.0,  999.0,  999.0,  999.0,  999.0,  999.0,  999.0,  999.0
2005/08/24 14:40,  999.0,   -1.9,   -1.5,   -1.7,   -6.9,   -9.0,   -9.4,   -8.7,   -8.8,   -7.9,   -8.5,   -7.7,   -6.4,   -5.5,   -4.9,   -3.4,   -2.3,   -2.5,   -2.4,   -1.3,   -1.2,   -1.5,   -2.0,   -2.6,   -2.5,   -1.2,   -0.4,  999.0,  999.0,  999.0,  999.0,  999.0,  999.0,  999.0,  999.0,  999.0,  999.0,  999.0,  999.0,  999.0,  999.0,  999.0,  999.0,  -28.0,  999.0,  999.0,  999.0,  999.0,  999.0,  999.0,  999.0,  999.0,  999.0,  999.0,  999.0,  999.0,  999.0,  999.0,  999.0,  999.0,  999.0,  999.0,  999.0
2005/08/24 14:50,  999.0,   -2.2,   -1.7,  999.0,   -7.1,   -9.2,   -8.1,   -8.0,   -7.7,   -8.5,   -9.1,   -9.1,   -7.4,   -6.0,   -5.8,   -5.0,   -3.3,   -2.6,   -1.8,   -1.2,   -2.1,   -1.7,   -2.1,   -2.2,   -2.7,   -1.2,   -0.9,  999.0,  999.0,   -0.8,  999.0,  999.0,  999.0,  999.0,  999.0,  999.0,  999.0,  999.0,  999.0,  999.0,  999.0,  999.0,  999.0,  999.0,  999.0,  999.0,  999.0,  999.0,  999.0,  999.0,  999.0,  999.0,  999.0,  999.0,  999.0,  999.0,  999.0,  999.0,  999.0,  999.0,  999.0,  999.0,  999.0
2005/08/24 15:00,  999.0,   -3.5,   -2.4,   -1.9,  -10.6,   -9.1,   -9.0,   -7.2,   -7.9,   -8.9,  -10.3,  -10.3,   -7.6,   -6.1,   -5.1,   -3.9,   -2.7,   -2.4,   -1.3,   -1.2,   -1.2,   -1.4,   -1.6,   -1.3,   -1.7,   -1.6,   -1.5,    0.2,    0.7,   -0.8,   -4.2,   -5.5,   -3.0,   -1.9,  999.0,  999.0,  999.0,    1.6,  999.0,  999.0,   -1.2,  999.0,    2.2,  999.0,  999.0,  999.0,  999.0,  999.0,  999.0,  999.0,  999.0,  999.0,  999.0,  999.0,  999.0,  999.0,  999.0,  999.0,  999.0,  999.0,  999.0,  999.0,  999.0
2005/08/24 15:10,  999.0,  999.0,   -1.2,   -0.7,   -7.4,   -7.8,   -7.9,   -7.0,   -9.1,  -10.5,  -10.5,   -9.5,   -7.1,   -5.1,   -3.9,   -3.8,   -2.2,   -1.0,   -1.3,   -0.8,   -1.7,   -2.2,   -3.3,   -2.4,   -3.0,   -2.6,   -1.4,   -0.6,   -0.4,   -0.1,   -2.6,   -5.0,   -5.0,   -2.0,  999.0,  999.0,  999.0,  999.0,   -0.6,   -2.0,   -2.3,  999.0,    2.4,  999.0,  999.0,  999.0,  999.0,  999.0,  999.0,  999.0,  999.0,  999.0,  999.0,  999.0,  999.0,  999.0,  999.0,  999.0,  999.0,  999.0,  999.0,  999.0,  999.0
2005/08/24 15:20,  999.0,   -3.3,   -2.1,  999.0,   -5.9,   -9.3,   -7.4,   -8.0,   -8.8,  -10.2,   -9.8,   -9.1,   -8.3,   -5.9,   -5.1,   -4.4,   -3.5,   -2.1,   -2.0,   -2.3,   -3.1,   -3.3,   -3.5,   -3.2,   -3.3,   -3.0,   -2.4,   -1.0,   -1.1,   -0.7,   -1.6,   -4.8,   -4.8,   -1.3,  999.0,  999.0,    1.3,    0.9,   -0.6,   -1.7,   -3.6,  999.0,  999.0,  999.0,  999.0,  999.0,  999.0,  999.0,  999.0,  999.0,  999.0,  999.0,  999.0,  999.0,  999.0,  999.0,  999.0,  999.0,  999.0,  999.0,  999.0,  999.0,  999.0
2005/08/24 15:30,  999.0,   -3.6,   -1.7,   -0.9,  999.0,   -6.9,   -7.4,   -7.3,   -9.4,   -8.9,   -8.5,   -7.4,   -7.7,   -6.4,   -5.0,   -3.7,   -2.2,   -2.6,   -1.8,   -1.4,   -2.5,   -2.3,   -3.1,   -2.5,   -2.4,  999.0,   -3.2,   -2.0,   -1.2,  999.0,   -2.2,   -4.7,   -4.2,   -1.5,  999.0,  999.0,  999.0,  999.0,  999.0,  999.0,   -3.4,  999.0,  999.0,  999.0,  999.0,  999.0,  999.0,  999.0,  999.0,  999.0,  999.0,  999.0,  999.0,  999.0,  999.0,  999.0,  999.0,  999.0,  999.0,  999.0,  999.0,  999.0,  999.0
2005/08/24 15:40,  999.0,   -2.0,   -0.9,   -0.6,   -5.2,   -8.0,   -7.8,   -8.6,   -8.2,   -7.6,   -7.0,   -6.8,   -7.0,   -6.7,   -5.3,   -4.0,   -3.3,   -3.0,   -2.8,   -2.2,   -1.7,   -2.5,   -2.1,   -2.9,   -3.3,   -3.2,   -3.5,   -2.3,   -2.0,   -1.5,   -3.9,   -4.9,   -1.7,   -1.1,  999.0,  999.0,    2.0,    1.5,  999.0,   -1.2,   -2.9,  999.0,  999.0,  999.0,  999.0,  999.0,  999.0,  999.0,  999.0,  999.0,  999.0,  999.0,  999.0,  999.0,  999.0,  999.0,  999.0,  999.0,  999.0,  999.0,  999.0,  999.0,  999.0
2005/08/24 15:50,  999.0,   -2.9,   -1.9,   -1.9,   -5.4,   -8.8,   -8.7,   -9.0,   -8.5,   -7.6,   -7.3,   -7.0,   -6.1,   -6.4,   -5.8,   -4.4,   -3.2,   -2.4,   -2.0,   -1.3,   -2.9,   -1.8,   -1.9,   -3.0,   -2.2,   -3.5,   -3.3,   -2.1,   -1.4,   -1.6,   -4.1,   -4.6,   -1.9,  999.0,  999.0,  999.0,  999.0,    1.3,    0.8,   -1.0,   -1.8,  999.0,  999.0,  999.0,  999.0,  999.0,  999.0,  999.0,  999.0,  999.0,  999.0,  999.0,  999.0,  999.0,  999.0,  999.0,  999.0,  999.0,  999.0,  999.0,  999.0,  999.0,  999.0
2005/08/24 16:00,  999.0,   -1.9,   -1.3,  999.0,   -3.4,   -8.4,   -8.2,   -8.6,   -8.5,   -7.4,   -7.2,   -6.3,   -5.1,   -4.9,   -5.1,   -3.8,   -3.8,   -3.0,   -2.3,   -1.5,   -2.1,   -1.7,   -2.3,   -3.0,   -4.0,   -3.0,   -3.0,   -1.7,   -1.4,   -1.9,   -3.4,   -3.0,   -1.1,  999.0,  999.0,  999.0,    1.9,    1.5,   -0.6,   -2.9,  999.0,  999.0,  999.0,  999.0,  999.0,  999.0,  999.0,  999.0,  999.0,  999.0,  999.0,  999.0,  999.0,  999.0,  999.0,  999.0,  999.0,  999.0,  999.0,  999.0,  999.0,  999.0,  999.0
2005/08/24 16:10,  999.0,   -2.1,   -1.3,   -0.8,   -3.5,   -8.6,   -8.9,   -8.2,   -6.0,   -6.5,   -6.4,   -5.2,   -5.3,   -4.8,   -4.6,   -2.8,   -3.7,   -3.1,   -2.5,   -2.8,   -1.6,   -2.1,   -1.6,   -1.6,   -2.3,   -2.5,   -2.2,   -1.6,   -2.1,   -1.6,   -3.5,   -2.6,   -0.9,  999.0,  999.0,  999.0,  999.0,    0.3,  999.0,  999.0,  999.0,  999.0,  999.0,  999.0,  999.0,  999.0,  999.0,  999.0,  999.0,  999.0,  999.0,  999.0,  999.0,  999.0,  999.0,  999.0,  999.0,  999.0,  999.0,  999.0,  999.0,  999.0,  999.0
2005/08/24 16:20,  999.0,   -1.7,   -0.9,  999.0,   -5.6,   -6.5,   -7.2,   -7.0,   -6.6,   -7.0,   -6.6,   -5.1,   -6.1,   -5.4,   -4.5,   -5.0,   -4.4,   -4.5,   -3.4,   -2.9,   -2.9,   -2.6,   -2.5,   -2.4,   -3.2,   -3.7,   -2.0,   -2.1,   -1.6,   -1.8,   -3.5,   -2.0,  999.0,  999.0,  999.0,  999.0,    1.7,  999.0,  999.0,   -2.3,   -3.2,  999.0,  999.0,  999.0,  999.0,  999.0,  999.0,  999.0,  999.0,  999.0,  999.0,  999.0,  999.0,  999.0,  999.0,  999.0,  999.0,  999.0,  999.0,  999.0,  999.0,  999.0,  999.0
2005/08/24 16:30,  999.0,   -2.2,   -1.2,   -1.2,   -7.5,   -7.8,   -7.2,   -7.0,   -6.1,   -6.3,   -6.1,   -6.4,   -6.8,   -5.9,   -6.0,   -5.6,   -5.0,   -4.9,   -4.4,   -3.7,   -3.2,   -3.9,   -3.7,   -4.5,   -4.9,   -4.8,   -3.2,   -3.1,  999.0,   -2.6,   -3.1,   -2.1,  999.0,  999.0,  999.0,    1.0,  999.0,    0.1,   -1.1,   -2.7,   -2.8,  999.0,  999.0,  999.0,  999.0,  999.0,  999.0,  999.0,  999.0,  999.0,  999.0,  999.0,  999.0,  999.0,  999.0,  999.0,  999.0,  999.0,  999.0,  999.0,  999.0,  999.0,  999.0
2005/08/24 16:40,  999.0,   -1.6,   -0.8,  999.0,   -7.3,   -7.6,   -7.9,   -6.4,   -6.3,   -6.2,   -6.2,   -6.7,   -6.4,   -4.8,   -3.6,   -3.7,   -4.1,   -4.1,   -4.0,   -3.8,   -3.7,   -3.6,   -3.8,   -4.5,   -5.3,  999.0,  999.0,   -3.0,   -2.7,   -1.7,   -3.0,  999.0,  999.0,  999.0,  999.0,  999.0,  999.0,  999.0,  999.0,  999.0,   -3.1,  999.0,  999.0,  999.0,  999.0,  999.0,  999.0,  999.0,  999.0,  999.0,  999.0,  999.0,  999.0,  999.0,  999.0,  999.0,  999.0,  999.0,  999.0,  999.0,  999.0,  999.0,  999.0
2005/08/24 16:50,  999.0,   -1.3,   -0.6,   -0.6,   -3.3,   -7.9,   -7.3,   -5.1,   -4.3,   -5.6,   -6.7,   -7.6,   -7.2,   -5.3,   -5.1,   -3.3,   -2.6,   -3.0,   -3.3,   -3.1,   -3.3,   -3.2,   -3.8,   -3.8,   -4.2,  999.0,  999.0,   -3.6,   -2.7,  999.0,  999.0,  999.0,  999.0,  999.0,  999.0,  999.0,  999.0,  999.0,  999.0,  999.0,  999.0,  999.0,  999.0,  999.0,  999.0,  999.0,  999.0,  999.0,  999.0,  999.0,  999.0,  999.0,  999.0,  999.0,  999.0,  999.0,  999.0,  999.0,  999.0,  999.0,  999.0,  999.0,  999.0
2005/08/24 17:00,  999.0,   -1.2,   -0.7,   -0.7,   -4.3,   -8.1,   -5.8,   -1.9,   -4.4,   -6.2,   -7.7,   -8.4,   -7.3,   -7.0,   -4.8,   -4.5,   -3.4,   -2.7,   -2.7,   -2.3,   -2.8,   -3.3,   -3.7,   -4.0,   -3.4,  999.0,  999.0,  999.0,  999.0,  999.0,  999.0,  999.0,  999.0,  999.0,  999.0,  999.0,  999.0,  999.0,  999.0,  999.0,  -28.8,  999.0,  999.0,  999.0,  999.0,  999.0,  999.0,  999.0,  999.0,  999.0,  999.0,  999.0,  999.0,  999.0,  999.0,  999.0,  999.0,  999.0,  999.0,  999.0,  999.0,  999.0,  999.0
2005/08/24 17:10,  999.0,   -1.7,   -1.6,   -1.5,   -4.7,   -7.9,   -6.2,   -2.5,   -4.9,   -5.7,   -5.9,   -6.0,   -6.1,   -5.6,   -4.7,   -3.6,   -3.0,   -3.3,   -2.6,   -1.9,   -2.1,   -2.0,   -2.6,   -3.0,   -3.6,   -3.5,  999.0,  999.0,   -4.6,  999.0,   -4.6,   -4.2,  999.0,  999.0,  999.0,  999.0,  999.0,  999.0,  999.0,  999.0,  999.0,  999.0,  999.0,  999.0,  999.0,  999.0,  999.0,  999.0,  999.0,  999.0,  999.0,  999.0,  999.0,  999.0,  999.0,  999.0,  999.0,  999.0,  999.0,  999.0,  999.0,  999.0,  999.0
2005/08/24 17:20,  999.0,   -3.7,   -2.2,   -0.6,   -5.5,   -8.4,   -6.7,   -5.4,   -5.0,   -6.1,   -5.3,   -5.3,   -5.9,   -5.7,   -5.3,   -3.6,   -2.5,   -1.8,   -1.6,   -1.7,   -1.6,   -0.8,   -1.2,   -2.3,   -2.3,   -3.0,   -2.2,  999.0,   -2.7,   -4.1,   -4.6,   -4.1,   -2.8,  999.0,  999.0,  999.0,  999.0,  999.0,  999.0,  999.0,  999.0,  999.0,  999.0,  999.0,  999.0,  999.0,  999.0,  999.0,  999.0,  999.0,  999.0,  999.0,  999.0,  999.0,  999.0,  999.0,  999.0,  999.0,  999.0,  999.0,  999.0,  999.0,  999.0
2005/08/24 17:30,  999.0,   -0.4,   -0.8,   -2.3,   -6.4,   -8.7,   -7.7,   -6.7,   -8.0,   -7.9,   -7.4,   -7.6,   -7.5,   -7.9,   -6.9,   -5.5,   -3.1,   -2.2,   -2.0,   -2.2,   -3.0,   -4.0,   -4.0,  999.0,   -5.4,  999.0,   -6.9,   -1.3,  999.0,  999.0,  999.0,  999.0,  999.0,  999.0,  999.0,  999.0,  999.0,  999.0,  999.0,  999.0,  999.0,  999.0,  999.0,  999.0,  999.0,  999.0,  999.0,  999.0,  999.0,  999.0,  999.0,  999.0,  999.0,  999.0,  999.0,  999.0,  999.0,  999.0,  999.0,  999.0,  999.0,  999.0,  999.0
2005/08/24 17:40,  999.0,   -0.0,   -4.0,   -4.3,   -5.8,   -9.3,   -9.1,   -8.2,   -8.1,   -8.7,   -8.4,   -8.5,   -8.9,   -8.6,   -7.9,   -7.2,   -5.5,   -3.7,   -2.9,   -2.0,  999.0,   -5.1,   -6.6,   -6.7,  999.0,   -6.4,   -7.0,  999.0,  999.0,  999.0,  999.0,  999.0,  999.0,  999.0,  999.0,  999.0,  999.0,  999.0,   27.0,  999.0,  999.0,  999.0,  999.0,  999.0,   27.5,  999.0,  999.0,  999.0,  999.0,  999.0,  999.0,  999.0,  999.0,  999.0,  999.0,  999.0,  999.0,  999.0,  999.0,  999.0,  999.0,  999.0,  999.0
2005/08/24 17:50,  999.0,   -2.1,   -3.4,   -4.5,   -8.8,   -8.9,   -8.8,  999.0,   -7.7,   -7.5,   -7.2,   -7.1,   -7.0,   -7.2,   -6.7,   -5.1,   -4.5,   -3.8,   -1.3,   -1.3,   -1.1,   -1.1,  999.0,   -2.9,   -3.3,   -5.0,   -4.4,   -3.5,   -3.4,   -3.9,   -4.9,   -4.7,   -3.5,   -1.2,  999.0,  999.0,  999.0,  999.0,  999.0,  999.0,  999.0,  999.0,  999.0,  999.0,  999.0,  999.0,  999.0,  999.0,  999.0,  999.0,  999.0,  999.0,  999.0,  999.0,  999.0,  999.0,  999.0,  999.0,  999.0,  999.0,  999.0,  999.0,  999.0
2005/08/24 18:00,  999.0,   -2.6,   -2.7,   -1.6,   -9.3,   -9.7,   -9.2,   -8.6,   -8.1,   -7.8,   -7.4,   -7.4,   -6.9,   -6.4,   -7.4,   -5.8,   -4.8,   -3.2,   -2.0,   -0.2,   -0.2,   -1.1,   -0.1,  999.0,  999.0,   -3.5,   -3.5,   -3.3,   -4.1,   -4.3,  999.0,   -5.2,   -4.0,   -2.3,  999.0,  999.0,  999.0,  999.0,  999.0,  999.0,  999.0,  999.0,  999.0,   -2.1,   -2.2,  999.0,  999.0,  999.0,  999.0,  999.0,  999.0,  999.0,  999.0,  999.0,  999.0,  999.0,  999.0,  999.0,  999.0,  999.0,  999.0,  999.0,  999.0
2005/08/24 18:10,  999.0,   -2.4,   -2.0,   -6.1,   -9.0,   -9.9,   -9.3,   -8.8,   -8.9,   -8.7,   -8.0,   -8.1,   -7.8,   -8.0,   -7.3,   -6.7,   -5.7,   -5.1,   -3.4,   -1.0,   -0.1,   -0.9,   -0.8,    0.2,  999.0,  999.0,   -3.1,   -4.1,   -5.1,   -5.3,   -5.5,   -5.6,   -5.0,   -4.2,  999.0,  999.0,  999.0,  999.0,  999.0,  999.0,  999.0,  999.0,  999.0,   -2.8,  999.0,  999.0,  999.0,  999.0,  999.0,  999.0,  999.0,  999.0,  999.0,  999.0,  999.0,  999.0,  999.0,  999.0,  999.0,  999.0,  999.0,  999.0,  999.0
2005/08/24 18:20,  999.0,   -4.4,   -2.8,   -3.5,   -6.5,   -9.4,   -9.0,   -8.7,   -9.2,   -8.6,   -7.9,   -7.6,   -7.5,   -7.5,   -6.8,   -6.7,   -5.3,   -3.9,   -2.5,   -1.2,   -0.3,    0.0,    0.4,   -0.5,   -1.2,   -2.4,   -3.6,   -5.4,   -5.9,   -6.8,   -6.0,   -4.6,   -3.4,  999.0,   -3.8,   -3.6,   -4.4,  999.0,  999.0,  999.0,  999.0,  999.0,  999.0,  999.0,  999.0,  999.0,  999.0,  999.0,  999.0,  999.0,  999.0,  999.0,  999.0,  999.0,  999.0,  999.0,  999.0,  999.0,  999.0,  999.0,  999.0,  999.0,  999.0
2005/08/24 18:30,  999.0,   -2.0,   -1.7,   -1.0,   -6.8,   -8.8,   -9.4,   -8.8,   -8.7,   -9.0,   -8.5,   -7.7,   -7.2,   -6.9,   -6.0,   -5.6,   -5.3,   -4.4,   -2.9,   -1.5,   -1.9,   -0.3,    0.0,    0.4,   -1.9,  999.0,   -3.2,  999.0,   -4.9,   -4.4,   -4.5,  999.0,   -3.3,   -2.4,   -3.6,   -4.0,   -5.2,  999.0,  999.0,  999.0,  999.0,  999.0,  999.0,  999.0,  999.0,  999.0,  999.0,  999.0,  999.0,  999.0,  999.0,  999.0,  999.0,  999.0,  999.0,  999.0,  999.0,  999.0,  999.0,  999.0,  999.0,  999.0,  999.0
2005/08/24 18:40,  999.0,   -3.2,   -2.2,  999.0,   -5.0,   -9.7,   -9.8,   -9.1,   -8.9,   -8.5,   -7.3,   -7.0,   -6.7,   -6.6,   -6.3,   -5.7,   -5.9,   -5.6,   -4.4,   -2.9,   -3.1,   -2.0,   -2.0,   -2.0,   -1.6,  999.0,  999.0,  999.0,  999.0,   -6.5,  999.0,  999.0,  -29.6,  -28.6,  -29.0,  -28.8,  999.0,  -23.5,  999.0,  -27.5,  -17.4,  -26.2,  999.0,  -27.5,  999.0,  999.0,  999.0,  999.0,  999.0,  999.0,  999.0,  999.0,  999.0,  999.0,  999.0,  999.0,  999.0,  999.0,  999.0,  999.0,  999.0,  999.0,  999.0
2005/08/24 18:50,  999.0,   -4.7,   -2.8,   -3.3,  999.0,  -10.9,  -10.3,   -9.4,   -8.9,   -8.1,   -8.1,   -7.9,   -7.5,   -7.7,   -7.8,   -7.6,   -7.1,   -6.9,   -5.7,   -4.1,   -2.4,   -1.5,   -1.0,   -0.5,   -1.1,   -1.6,  999.0,  999.0,  999.0,  999.0,  999.0,  999.0,  999.0,  999.0,  999.0,  999.0,  999.0,  -29.9,  -27.6,  -28.4,  -27.9,  -27.0,  999.0,  999.0,  999.0,  999.0,  999.0,  999.0,  999.0,  999.0,  999.0,  999.0,  999.0,  999.0,  999.0,  999.0,  999.0,  999.0,  999.0,  999.0,  999.0,  999.0,  999.0
2005/08/24 19:00,  999.0,  999.0,   -4.6,   -6.3,   -9.8,  -11.0,  -10.2,  -10.0,   -9.9,   -9.6,  -10.4,  -11.1,  -10.6,  -10.4,  -10.3,  -10.3,  -10.9,  -10.6,   -9.6,   -8.1,   -5.8,   -2.4,   -0.8,   -0.9,   -0.9,  999.0,  999.0,  999.0,  999.0,  999.0,  999.0,  999.0,  999.0,  999.0,  999.0,  999.0,  999.0,  999.0,  -29.2,  -29.2,  999.0,  999.0,  999.0,  999.0,  999.0,  999.0,  999.0,  999.0,  999.0,  999.0,  999.0,  999.0,  999.0,  999.0,  999.0,  999.0,  999.0,  999.0,  999.0,  999.0,  999.0,  999.0,  999.0
2005/08/24 19:10,  999.0,   -6.5,   -7.5,   -9.3,  -10.0,  -11.0,  -11.2,  -11.2,   -9.8,   -9.3,   -8.8,   -8.7,   -7.8,   -6.0,   -5.6,   -6.3,   -5.9,   -6.0,   -6.5,   -5.7,   -5.8,   -3.3,   -2.9,  999.0,  999.0,  999.0,  999.0,  999.0,  999.0,  999.0,  999.0,  999.0,  -42.4,  999.0,  999.0,  -27.7,  -27.4,  -36.6,  -36.8,  -27.7,  999.0,  -41.3,  999.0,  999.0,  999.0,  999.0,  999.0,  999.0,  999.0,  999.0,  999.0,  999.0,  999.0,  999.0,  999.0,  999.0,  999.0,  999.0,  999.0,  999.0,  999.0,  999.0,  999.0
2005/08/24 19:20,  999.0,   -9.5,  -10.0,  -10.0,  -10.7,  -13.0,  -11.9,  -10.3,  -11.2,   -9.6,   -8.0,   -7.5,   -7.5,   -7.4,   -7.2,   -8.1,   -6.5,   -6.3,   -5.5,   -5.9,   -4.7,   -3.4,   -2.3,  999.0,  999.0,  999.0,  999.0,  999.0,  999.0,  999.0,  999.0,  -43.2,  -36.9,  -39.4,  999.0,  999.0,  999.0,  -42.3,  -33.2,  -29.1,  999.0,  999.0,  999.0,  999.0,  999.0,  999.0,  999.0,  999.0,  999.0,  999.0,  999.0,  999.0,  999.0,  999.0,  999.0,  999.0,  999.0,  999.0,  999.0,  999.0,  999.0,  999.0,  999.0
2005/08/24 19:30,  999.0,   -3.8,  999.0,   -2.5,   -7.7,  -12.3,  -11.8,  -10.7,   -9.9,   -8.9,   -8.1,   -7.1,   -7.3,   -7.0,   -7.1,   -8.2,   -7.9,   -7.3,   -6.9,   -5.9,  999.0,  999.0,  999.0,  999.0,  999.0,  999.0,  999.0,  999.0,  999.0,  999.0,  999.0,  -30.1,  -29.3,  -29.0,  -28.3,  999.0,  999.0,  -28.8,  -29.1,  -28.6,  999.0,  999.0,  -27.6,  999.0,  999.0,  999.0,  999.0,  999.0,  999.0,  999.0,  999.0,  999.0,  999.0,  999.0,  999.0,  999.0,  999.0,  999.0,  999.0,  999.0,  999.0,  999.0,  999.0
2005/08/24 19:40,  999.0,   -2.0,   -3.4,   -4.9,  -10.4,  -11.8,  -11.4,  -10.6,  -10.5,   -9.6,   -9.0,   -8.5,   -8.4,   -8.3,   -8.1,   -8.6,   -8.3,   -6.9,   -5.8,   -5.3,  999.0,  999.0,  999.0,  999.0,  999.0,  999.0,  999.0,  999.0,  999.0,  999.0,  999.0,  -28.4,  999.0,  -29.3,  999.0,  -29.1,  -29.1,  -31.1,  -31.4,  999.0,  -28.1,  -28.1,  -27.8,  -27.2,  999.0,  999.0,  999.0,  999.0,  999.0,  999.0,  999.0,  999.0,  999.0,  999.0,  999.0,  999.0,  999.0,  999.0,  999.0,  999.0,  999.0,  999.0,  999.0
2005/08/24 19:50,  999.0,   -3.7,   -3.6,   -4.8,  -11.8,  -11.7,  -11.4,  -11.1,  -10.7,  -10.0,   -9.7,   -8.8,   -8.8,   -8.4,   -8.1,  999.0,   -9.2,   -8.2,   -6.8,  999.0,  999.0,  999.0,  999.0,  999.0,  999.0,  999.0,  999.0,  999.0,  -28.4,  -29.0,  -29.1,  -29.4,  -29.5,  -29.8,  -29.9,  -29.9,  -31.4,  999.0,  -31.0,  -30.0,  999.0,  999.0,  -27.7,  999.0,  999.0,  999.0,  999.0,  999.0,  999.0,  999.0,  999.0,  999.0,  999.0,  999.0,  999.0,  999.0,  999.0,  999.0,  999.0,  999.0,  999.0,  999.0,  999.0
2005/08/24 20:00,  999.0,   -3.7,   -3.4,   -2.3,   -9.9,  -11.7,  -11.6,  -11.4,  -10.7,  -11.0,  -10.2,   -9.3,   -8.7,   -8.6,   -9.1,   -9.5,   -8.8,   -8.6,   -8.0,   -6.9,   -5.0,   -2.8,   -1.4,  999.0,  999.0,  999.0,  999.0,  999.0,  999.0,  999.0,  999.0,  999.0,  999.0,  999.0,  -28.6,  -29.0,  999.0,  999.0,  999.0,  999.0,  999.0,  999.0,  999.0,  999.0,  999.0,  999.0,  999.0,  999.0,  999.0,  999.0,  999.0,  999.0,  999.0,  999.0,  999.0,  999.0,  999.0,  999.0,  999.0,  999.0,  999.0,  999.0,  999.0
2005/08/24 20:10,  999.0,   -3.1,   -2.5,   -2.2,   -6.1,  -11.9,  -12.4,  -11.2,  -10.6,  -10.6,   -9.5,   -8.5,   -8.7,   -8.1,   -8.8,   -9.1,   -8.7,  999.0,   -7.8,   -7.1,   -6.0,   -4.5,   -3.5,   -1.8,   -0.4,  999.0,  999.0,  999.0,  999.0,  999.0,  999.0,  999.0,  999.0,  -28.9,  -30.2,  999.0,  999.0,  -28.6,  -29.1,  999.0,  999.0,  999.0,  999.0,  999.0,  -28.0,  999.0,  999.0,  999.0,  999.0,  999.0,  999.0,  999.0,  999.0,  999.0,  999.0,  999.0,  999.0,  999.0,  999.0,  999.0,  999.0,  999.0,  999.0
2005/08/24 20:20,  999.0,   -4.5,   -3.4,  999.0,   -9.8,  -12.5,  -12.0,  -11.3,  -10.6,  -10.9,   -9.5,   -8.8,   -7.8,   -7.7,   -7.9,   -7.5,   -6.5,   -5.8,   -5.7,   -5.5,   -4.5,   -3.4,   -2.6,   -1.9,   -0.6,   -2.2,   -2.4,   -3.1,   -2.7,   -1.9,  999.0,  999.0,  999.0,  999.0,  999.0,  999.0,  999.0,  999.0,  999.0,  999.0,  999.0,  999.0,  999.0,  999.0,  999.0,  999.0,  999.0,  999.0,  999.0,  999.0,  999.0,  999.0,  999.0,  999.0,  999.0,  999.0,  999.0,  999.0,  999.0,  999.0,  999.0,  999.0,  999.0
2005/08/24 20:30,  999.0,   -2.9,   -3.5,   -1.0,  -10.2,  -12.3,  -12.4,  -11.6,  -10.9,  -11.0,  -10.3,  -10.7,  -10.7,   -9.6,   -9.9,  -10.2,   -8.0,   -7.9,   -7.5,   -6.9,   -6.3,   -5.2,   -3.8,   -1.6,   -0.4,   -0.2,   -1.5,   -2.9,   -3.5,  999.0,  999.0,  999.0,  999.0,  999.0,  999.0,  999.0,  999.0,  999.0,  999.0,  999.0,  999.0,  999.0,  999.0,  -27.8,  999.0,  999.0,  999.0,  999.0,  999.0,  999.0,  999.0,  999.0,  999.0,  999.0,  999.0,  999.0,  999.0,  999.0,  999.0,  999.0,  999.0,  999.0,  999.0
2005/08/24 20:40,  999.0,   -3.0,   -3.9,  999.0,   -5.3,  -11.9,  -12.9,  -11.8,  -11.1,  -10.9,  -10.0,  -10.2,  -10.3,   -9.7,   -9.6,   -9.4,  999.0,  999.0,  999.0,   -8.2,   -7.9,  999.0,   -4.5,  999.0,  999.0,  999.0,  999.0,  999.0,  999.0,  999.0,  999.0,  999.0,  -55.1,  -55.0,  -55.1,  -55.0,  -55.0,  -55.1,  -45.4,  -55.0,  -55.2,  -55.0,  -55.1,  999.0,  999.0,  999.0,  999.0,  999.0,  999.0,  999.0,  999.0,  999.0,  999.0,  999.0,  999.0,  999.0,  999.0,  999.0,  999.0,  999.0,  999.0,  999.0,  999.0
2005/08/24 20:50,  999.0,   -0.6,   -4.0,   -3.8,   -9.6,  -12.1,  -12.2,  -11.4,  -11.4,  -10.9,  -10.5,  -10.9,   -9.9,   -9.5,   -9.7,   -9.8,  -10.1,  -10.1,  -10.1,   -9.7,   -7.7,   -7.1,   -6.8,   -6.6,  999.0,  999.0,  999.0,  999.0,  999.0,  999.0,  999.0,  999.0,  -55.0,  -55.1,  -55.1,  999.0,  -55.1,  -55.0,  -46.1,  -48.3,  -41.4,  -41.4,  999.0,  999.0,  999.0,  999.0,  999.0,  999.0,  999.0,  999.0,  999.0,  999.0,  999.0,  999.0,  999.0,  999.0,  999.0,  999.0,  999.0,  999.0,  999.0,  999.0,  999.0
2005/08/24 21:00,  999.0,   -1.5,   -0.6,   -1.5,   -7.7,  -12.8,  -11.7,  -11.4,  -11.1,  -10.9,  -11.5,  -11.2,  -10.1,  -10.0,   -9.3,   -9.2,  999.0,   -8.7,   -8.5,   -8.4,   -7.8,   -6.4,   -5.5,   -5.2,   -4.3,   -3.7,   -2.1,   -2.8,  999.0,  999.0,  999.0,  999.0,  999.0,  999.0,  999.0,  999.0,  999.0,  999.0,  999.0,  999.0,  999.0,  999.0,  999.0,  999.0,  999.0,  999.0,  999.0,  999.0,  999.0,  999.0,  999.0,  999.0,  999.0,  999.0,  999.0,  999.0,  999.0,  999.0,  999.0,  999.0,  999.0,  999.0,  999.0
2005/08/24 21:10,  999.0,   -1.8,   -1.4,   -1.8,  999.0,  -12.8,  -11.6,  -11.1,  -10.9,  -10.4,  -10.3,   -9.9,  -10.5,  -10.6,   -9.8,   -8.1,   -9.1,   -9.5,   -8.9,   -7.3,  999.0,   -6.7,   -4.9,   -5.2,   -4.9,   -4.6,   -4.4,   -3.8,  999.0,  999.0,  999.0,  999.0,  999.0,  999.0,  999.0,  999.0,  999.0,  -27.6,  -27.1,  -26.9,  999.0,  999.0,  999.0,  999.0,  999.0,  999.0,  999.0,  999.0,  999.0,  999.0,  999.0,  999.0,  999.0,  999.0,  999.0,  999.0,  999.0,  999.0,  999.0,  999.0,  999.0,  999.0,  999.0
2005/08/24 21:20,  999.0,   -3.2,   -3.4,  999.0,   -8.2,  -12.1,  -10.6,  -11.1,  -10.8,  -10.5,  -10.4,  -10.5,  -11.7,  -10.8,   -9.4,   -9.6,  -10.0,   -9.6,  -10.2,  999.0,  999.0,   -8.1,   -7.4,   -6.9,   -7.0,   -7.2,  999.0,  999.0,  999.0,  999.0,  -16.1,  999.0,  999.0,  999.0,  -29.3,  999.0,  999.0,  999.0,  999.0,  -41.0,  999.0,  999.0,  999.0,  999.0,  999.0,  999.0,  999.0,  999.0,  999.0,  999.0,  999.0,  999.0,  999.0,  999.0,  999.0,  999.0,  999.0,  999.0,  999.0,  999.0,  999.0,  999.0,  999.0
2005/08/24 21:30,  999.0,   -3.7,   -3.6,   -4.2,   -6.4,  -12.4,  -11.0,  -11.7,  -10.8,  -10.8,  -10.8,  -10.3,  -10.9,  -10.9,   -9.8,   -9.6,   -9.8,   -9.0,   -9.3,   -9.4,   -9.1,  999.0,   -6.5,  999.0,  999.0,  999.0,  999.0,  999.0,  999.0,  999.0,  999.0,  999.0,  999.0,  -55.1,  -55.2,  -55.2,  -55.1,  -55.1,  -55.3,  -55.2,  -55.2,  -55.2,  -55.1,  -55.4,  999.0,  -55.4,  999.0,  999.0,  999.0,  999.0,  999.0,  999.0,  999.0,  999.0,  999.0,  999.0,  999.0,  999.0,  999.0,  999.0,  999.0,  999.0,  999.0
2005/08/24 21:40,  999.0,   -3.1,   -3.7,   -0.9,   -3.7,  -11.0,  -12.8,  -12.7,  -11.9,  -11.0,  -10.8,  -11.2,  -11.7,  -11.9,  -11.5,  999.0,  999.0,  -10.5,   -9.5,   -9.4,   -7.9,  999.0,   -7.1,  999.0,  999.0,  999.0,  999.0,  999.0,  999.0,  -31.2,  999.0,  -29.1,  999.0,  999.0,  999.0,  999.0,  999.0,  999.0,  -55.2,  -55.0,  -55.3,  -55.2,  -55.3,  -55.1,  -55.1,  -55.6,  -55.3,  999.0,  999.0,  999.0,  999.0,  999.0,  999.0,  999.0,  999.0,  999.0,  999.0,  999.0,  999.0,  999.0,  999.0,  999.0,  999.0
2005/08/24 21:50,  999.0,  999.0,   -3.4,  999.0,  999.0,  999.0,  -12.6,  -13.0,  -12.6,  -11.2,  -11.6,  -12.1,  -11.9,  -12.6,  -12.1,  999.0,  999.0,  -11.7,  -11.5,   -9.5,  999.0,  999.0,  999.0,  999.0,  999.0,  999.0,  999.0,  999.0,  999.0,  999.0,  999.0,  999.0,  999.0,  999.0,  999.0,  999.0,  999.0,  -55.1,  -55.1,  -46.2,  999.0,  -55.1,  -55.2,  -46.9,  -55.5,  -55.2,  999.0,  999.0,  999.0,  999.0,  999.0,  999.0,  999.0,  999.0,  999.0,  999.0,  999.0,  999.0,  999.0,  999.0,  999.0,  999.0,  999.0
2005/08/24 22:00,  999.0,  999.0,   -4.1,  999.0,  -11.5,  -14.3,  -13.8,  999.0,  -12.1,  -12.2,  -12.7,  -12.7,  -13.1,  -12.4,  -12.4,  -11.7,  -11.3,  -12.1,  -12.1,  -11.8,  999.0,  999.0,  999.0,  -10.3,   -9.1,   -7.6,   -6.8,  999.0,   -6.0,   -5.5,  999.0,  999.0,  999.0,  999.0,  999.0,  999.0,  999.0,  999.0,  999.0,  999.0,  999.0,  999.0,  999.0,  999.0,  999.0,  999.0,  999.0,  999.0,  999.0,  999.0,  999.0,  999.0,  999.0,  999.0,  999.0,  999.0,  999.0,  999.0,  999.0,  999.0,  999.0,  999.0,  999.0
2005/08/24 22:10,  999.0,  999.0,  999.0,  999.0,  -16.4,  -16.8,  -14.6,  -13.6,  -12.7,  -14.3,  -12.9,  -13.4,  -10.4,  -10.7,  -11.9,  -11.8,  -11.4,  -11.9,  -10.3,  999.0,  999.0,  999.0,  999.0,  999.0,   -9.4,  999.0,  999.0,  999.0,  999.0,  999.0,  999.0,  999.0,  999.0,  999.0,  999.0,  999.0,  999.0,  999.0,  -27.6,  -27.8,  999.0,  999.0,  999.0,  -29.6,  999.0,  999.0,  999.0,  999.0,  999.0,  999.0,  999.0,  999.0,  999.0,  999.0,  999.0,  999.0,  999.0,  999.0,  999.0,  999.0,  999.0,  999.0,  999.0
2005/08/24 22:20,  999.0,  999.0,   -0.1,  999.0,  -13.0,  -15.5,  -14.3,  -12.8,  -16.6,  -14.5,  -13.2,  -13.3,  -12.9,  -13.5,  -12.9,  -11.7,  -11.7,  -11.1,  -11.3,  -11.5,  999.0,  999.0,  999.0,  -10.4,   -9.2,   -7.9,  999.0,  999.0,  999.0,  999.0,  999.0,  999.0,  999.0,  999.0,  999.0,  999.0,  -30.2,  -38.2,  -49.0,  -55.2,  999.0,  -46.2,  -48.7,  -42.8,  -38.1,  -43.3,  -42.3,  999.0,  999.0,  999.0,  999.0,  999.0,  999.0,  999.0,  999.0,  999.0,  999.0,  999.0,  999.0,  999.0,  999.0,  999.0,  999.0
2005/08/24 22:30,  999.0,   -2.0,   -1.4,  999.0,   -9.9,  -14.7,  -13.1,  -13.5,  -12.6,  -12.5,  -12.5,  -13.0,  -13.3,  -12.3,  -13.1,  -11.8,  -11.3,  999.0,  -11.2,  -12.6,  -12.5,  999.0,  999.0,  -12.6,  999.0,  -10.8,  999.0,  999.0,  999.0,  999.0,  999.0,  999.0,  999.0,  999.0,  999.0,  999.0,  999.0,  -55.1,  -55.2,  -55.1,  -55.0,  -55.1,  -55.0,  -55.3,  -55.2,  -55.4,  -55.0,  999.0,  999.0,  999.0,  999.0,  999.0,  999.0,  999.0,  999.0,  999.0,  999.0,  999.0,  999.0,  999.0,  999.0,  999.0,  999.0
2005/08/24 22:40,  999.0,   -1.9,   -1.3,  999.0,  -10.5,  -14.9,  -14.7,  -14.2,  -13.2,  -12.4,  -12.9,  -13.1,  -12.6,  -11.8,  -11.4,  -10.8,  -11.4,  -11.5,  -11.3,  -11.3,  999.0,  999.0,  999.0,  999.0,  -12.4,  999.0,  999.0,  999.0,  999.0,  999.0,  999.0,  999.0,  999.0,  999.0,  999.0,  999.0,  999.0,  -55.1,  999.0,  -55.1,  -55.3,  -55.2,  -55.2,  -55.2,  -55.2,  999.0,  -55.1,  -55.4,  -55.0,  999.0,  999.0,  999.0,  999.0,  999.0,  999.0,  999.0,  999.0,  999.0,  999.0,  999.0,  999.0,  999.0,  999.0
2005/08/24 22:50,  999.0,   -2.2,   -1.2,  999.0,   -8.1,  -13.1,  -13.8,  -13.5,  -13.3,  -13.1,  -13.0,  -12.9,  -13.0,  -14.3,  -11.4,  -11.0,  999.0,  999.0,  -11.8,  -11.7,  999.0,  999.0,  999.0,  999.0,  999.0,  -30.9,  -30.0,  -29.0,  -29.7,  999.0,  -28.7,  999.0,  999.0,  999.0,  999.0,  999.0,  999.0,  999.0,  -55.0,  -55.0,  -55.0,  -55.1,  -55.2,  -55.1,  -55.3,  -55.2,  -55.1,  -55.3,  999.0,  999.0,  999.0,  999.0,  999.0,  999.0,  999.0,  999.0,  999.0,  999.0,  999.0,  999.0,  999.0,  999.0,  999.0
2005/08/24 23:00,  999.0,   -2.5,   -1.7,  999.0,  -10.2,  -13.0,  -12.9,  -14.7,  -13.5,  -13.7,  -13.8,  -14.0,  -14.0,  -14.0,  -11.7,  -11.7,  -12.1,  -11.6,  -11.3,  999.0,  -12.2,  999.0,  999.0,  999.0,  999.0,  999.0,  999.0,  999.0,  -29.4,  -29.1,  -28.7,  999.0,  999.0,  999.0,  999.0,  999.0,  999.0,  999.0,  999.0,  -55.1,  999.0,  -55.3,  -52.3,  -55.3,  -55.5,  -55.3,  -55.2,  -55.4,  999.0,  -55.8,  999.0,  999.0,  999.0,  999.0,  999.0,  999.0,  999.0,  999.0,  999.0,  999.0,  999.0,  999.0,  999.0
2005/08/24 23:10,  999.0,   -2.4,  999.0,  999.0,   -9.7,  -13.7,  -14.4,  -13.4,  -13.7,  -13.0,  -13.1,  -12.3,  -12.2,  -13.4,  -12.0,  999.0,  -11.8,  -12.4,  -11.7,  -11.7,  999.0,   -9.2,  999.0,  999.0,  999.0,  999.0,  999.0,  999.0,  999.0,  -55.0,  -55.0,  -55.0,  -55.0,  -55.1,  -54.9,  -55.0,  -54.9,  -55.1,  -55.1,  -55.1,  -55.1,  -55.2,  -55.1,  -55.1,  -55.3,  -55.2,  999.0,  -55.2,  -55.4,  999.0,  999.0,  999.0,  999.0,  999.0,  999.0,  999.0,  999.0,  999.0,  999.0,  999.0,  999.0,  999.0,  999.0
2005/08/24 23:20,  999.0,   -2.2,  999.0,   -1.2,  999.0,  -14.4,  -14.5,  -13.7,  -14.0,  -12.8,  -13.9,  -13.7,  -14.3,  -14.2,  -13.4,  -13.2,  -13.7,  -13.8,  -13.1,  -12.7,  -12.7,  -12.3,  999.0,   -9.2,   -8.7,  999.0,  999.0,  999.0,  999.0,  999.0,  999.0,  999.0,  999.0,  -29.9,  -38.6,  -39.3,  -42.9,  999.0,  999.0,  999.0,  999.0,  999.0,  999.0,  999.0,  999.0,  999.0,  999.0,  999.0,  999.0,  999.0,  999.0,  999.0,  999.0,  999.0,  999.0,  999.0,  999.0,  999.0,  999.0,  999.0,  999.0,  999.0,  999.0
2005/08/24 23:30,  999.0,   -1.7,  999.0,   -2.4,  999.0,  -14.5,  -14.6,  -14.7,  -14.4,  -14.3,  -14.7,  -14.3,  -14.2,  -13.9,  -13.5,  -14.0,  -14.2,  -13.9,  -13.4,  -11.8,  -11.6,  -11.0,  999.0,   -7.8,   -7.6,  999.0,  999.0,  999.0,  999.0,  999.0,  999.0,  999.0,  -28.9,  -42.1,  -42.0,  -33.9,  -34.0,  -33.6,  -36.6,  -36.9,  -38.8,  -37.2,  -55.1,  -55.2,  -47.4,  -43.3,  -55.3,  999.0,  999.0,  999.0,  999.0,  -54.8,  999.0,  999.0,  999.0,  999.0,  999.0,  999.0,  999.0,  999.0,  999.0,  999.0,  999.0
2005/08/24 23:40,  999.0,  999.0,  999.0,  999.0,  -14.2,  -15.5,  -15.4,  -15.4,  -15.3,  -15.3,  -15.6,  -15.9,  -15.6,  -14.8,  -14.6,  -14.3,  -13.7,  -14.0,  -14.6,  -15.1,  -13.6,  -14.5,  -13.0,  999.0,   -9.3,  999.0,  999.0,  999.0,  999.0,  999.0,  999.0,  999.0,  999.0,  999.0,  999.0,  999.0,  999.0,  999.0,  999.0,  999.0,  999.0,  999.0,  999.0,  -55.3,  -55.1,  -55.0,  -55.3,  999.0,  999.0,  999.0,  999.0,  999.0,  999.0,  999.0,  999.0,  999.0,  999.0,  999.0,  999.0,  999.0,  999.0,  999.0,  999.0
2005/08/24 23:50,  999.0,   -6.9,  999.0,  999.0,  -14.9,  -16.3,  -15.7,  -15.8,  -15.4,  -16.0,  -15.9,  -15.9,  -14.7,  -14.3,  -14.4,  -13.9,  -13.3,  -12.4,  -11.9,  -12.8,  -14.4,  -13.9,  -11.6,  -10.2,   -8.3,   -6.7,   -6.5,   -5.6,  999.0,  999.0,  999.0,  -27.6,  999.0,  999.0,  999.0,  999.0,  999.0,  999.0,  999.0,  999.0,  999.0,  999.0,  999.0,  999.0,  999.0,  -55.1,  999.0,  -55.3,  -55.3,  -55.4,  999.0,  999.0,  999.0,  999.0,  999.0,  999.0,  999.0,  999.0,  999.0,  999.0,  999.0,  999.0,  999.0
